ECMWFFLT1_925_thetae_084.txt.gz
Theta_e
311 312 311 312 312 312 313 312 313 313 313 313 312 313 313 312 312 312 311 311 311 311 311 311 311 311 312 313 313 314 314 315 315 316 316 316 316 316 316 316 316 316 316 316 315 315 315 315 314 314 314 314 314 313 313 313 312 312 312 311 311 312
310 310 310 311 310 310 312 311 312 312 312 312 312 312 312 311 311 311 311 311 311 311 311 311 311 311 311 311 312 313 313 313 314 314 314 315 316 316 315 316 315 315 315 315 315 314 314 314 314 313 313 313 313 312 312 312 311 312 312 311 310 310
309 309 308 309 309 309 310 310 311 311 311 311 310 311 311 311 310 310 310 310 310 310 310 310 310 311 311 311 311 311 311 312 312 313 313 314 314 314 314 315 314 314 314 314 314 313 313 313 313 312 312 312 312 312 312 312 311 311 311 311 310 309
308 308 308 308 307 308 309 309 309 309 310 310 309 310 310 309 309 309 309 309 309 309 309 310 310 310 310 310 310 311 311 311 311 312 312 313 313 313 313 313 313 313 313 313 313 313 312 312 312 312 312 311 312 312 312 312 311 311 311 310 310 309
308 307 308 307 306 307 307 307 308 308 309 309 309 310 309 309 310 309 310 309 309 310 309 310 310 309 310 310 310 310 310 310 311 311 311 311 312 312 312 312 312 312 312 312 312 312 312 312 311 311 311 311 311 312 312 312 311 311 311 310 309 309
307 305 306 305 305 305 305 306 307 307 308 308 308 308 308 309 310 309 310 309 310 310 310 309 309 309 309 309 309 310 310 310 310 310 310 310 311 311 311 311 311 311 311 311 312 312 311 311 311 310 310 310 311 311 311 312 311 310 310 310 309 308
305 304 304 303 303 303 304 304 304 305 306 305 305 306 306 308 308 309 309 309 310 310 309 309 309 308 308 308 308 309 309 309 309 309 310 310 310 310 310 310 310 310 311 311 311 311 311 311 310 310 310 310 310 311 311 311 310 309 309 309 309 308
303 302 301 301 302 301 301 302 302 302 303 303 303 304 305 307 307 308 309 309 309 309 309 309 308 308 308 308 308 308 308 308 308 308 309 309 309 309 309 310 310 310 310 310 311 311 311 311 310 310 310 310 310 310 310 310 309 308 308 308 308 308
300 299 300 300 300 300 300 300 300 301 302 303 303 303 304 305 306 307 307 308 307 308 308 308 308 308 308 308 308 307 307 307 307 307 308 308 308 308 309 309 309 309 309 309 310 310 310 310 310 309 309 309 309 309 309 309 308 307 306 306 307 307
301 298 299 299 299 300 300 301 302 302 302 302 303 303 303 304 305 306 306 306 306 306 307 307 307 307 307 307 307 307 307 307 307 307 307 307 307 307 308 307 307 308 308 308 308 309 309 309 309 309 309 309 309 308 308 308 307 306 305 305 305 306
301 298 298 299 299 299 300 301 302 302 303 303 303 303 304 304 305 305 305 306 305 305 305 305 306 306 306 307 306 306 307 306 306 306 306 306 306 306 306 306 306 306 306 307 307 308 308 308 308 308 308 308 308 307 307 307 306 305 304 304 304 304
298 297 298 299 298 298 298 299 300 300 301 302 303 304 304 304 305 305 305 305 305 305 305 305 305 306 306 306 306 305 306 305 306 306 305 305 305 305 305 305 305 305 305 306 306 307 307 307 308 308 308 308 307 307 306 306 305 304 303 303 303 303
296 296 298 298 298 298 298 298 299 299 300 301 302 303 303 303 304 304 304 304 304 304 304 304 304 304 305 305 305 305 304 304 304 304 304 305 304 305 305 304 304 305 305 305 305 305 306 306 307 307 307 307 306 306 305 305 304 304 303 303 303 302
297 296 297 297 298 298 297 298 298 299 300 301 301 302 303 303 303 303 303 303 302 302 302 301 302 302 303 303 304 304 304 304 304 303 303 303 303 303 303 303 304 304 304 304 304 304 305 305 306 306 306 306 305 305 305 304 304 303 302 302 302 301
297 296 297 298 297 298 297 297 298 298 299 300 301 302 302 303 303 303 302 303 302 301 300 300 300 300 301 302 302 303 303 304 304 303 302 302 302 302 302 302 302 302 302 303 303 303 304 304 305 305 305 305 304 304 304 303 303 302 302 301 301 300
297 297 298 297 297 297 297 296 297 298 298 299 301 301 301 301 302 301 301 302 302 301 301 300 300 300 301 301 301 301 302 302 303 303 302 302 301 301 301 301 301 301 301 301 302 302 302 303 303 303 303 304 303 303 303 302 302 302 301 301 300 299
297 297 297 297 297 297 297 296 297 298 299 299 299 300 300 300 300 299 299 300 301 301 300 300 300 301 301 301 301 300 300 301 301 301 301 301 301 301 301 301 301 301 301 301 301 301 301 302 302 302 302 302 302 302 302 301 301 301 300 300 299 299
297 297 297 297 296 296 296 297 297 298 299 299 299 299 299 299 298 298 298 299 299 299 299 299 299 299 300 300 299 299 299 298 299 299 299 300 300 300 300 300 300 300 300 301 300 300 300 301 301 301 301 301 301 300 300 300 300 299 299 299 298 298
297 297 297 296 296 296 296 296 297 298 298 299 299 299 299 298 298 297 297 298 298 298 298 298 298 298 299 298 298 298 297 297 297 297 298 298 298 299 299 299 299 299 299 299 299 299 300 300 300 300 300 300 300 299 299 299 298 297 297 297 297 297
296 296 296 296 296 296 296 296 297 297 297 298 298 298 297 297 296 295 296 297 297 298 299 298 298 298 298 298 298 297 297 297 297 296 296 297 297 298 298 298 298 298 298 298 299 298 298 299 299 299 299 299 298 298 298 297 296 296 295 295 295 295
296 296 296 295 295 296 295 295 296 296 296 296 296 296 295 295 294 294 294 295 297 298 298 298 298 298 297 297 297 297 296 296 296 296 296 296 296 296 297 297 297 297 298 298 298 298 297 298 298 298 298 298 297 297 296 296 295 294 294 294 294 294
295 295 295 295 295 295 295 295 295 295 295 295 295 296 294 293 293 293 294 295 297 298 298 298 298 298 297 297 296 297 296 296 296 296 295 295 295 295 295 295 295 296 296 296 297 297 296 296 297 297 297 297 296 296 295 294 293 293 293 293 293 292
294 294 294 294 294 294 294 294 294 294 294 293 294 294 293 292 292 292 293 295 296 297 299 299 298 297 297 296 295 295 296 296 295 295 295 294 294 294 294 294 294 294 295 295 295 295 295 295 295 296 296 295 295 295 294 293 292 292 292 292 292 291
293 293 293 293 292 292 292 292 292 292 292 291 292 292 291 290 290 290 291 293 295 296 298 298 298 297 296 295 294 294 295 295 295 294 294 294 293 293 293 293 293 293 293 294 293 293 294 294 294 294 294 294 294 294 293 292 292 292 292 291 291 290
291 291 291 291 291 291 290 290 290 290 290 290 290 290 289 288 288 288 290 291 293 294 295 296 296 296 295 294 293 292 293 294 293 293 293 293 292 292 292 292 292 291 291 292 292 292 292 293 293 293 293 293 292 292 292 291 291 291 291 290 290 289
289 289 289 289 288 288 289 289 289 288 288 289 289 288 288 287 287 288 289 290 292 293 293 294 294 294 294 293 291 291 292 292 292 292 292 291 291 291 290 290 290 290 289 290 290 291 291 292 292 292 292 292 292 291 291 290 290 290 290 289 289 288
286 286 286 287 287 287 287 287 287 287 287 287 286 286 286 286 286 287 289 289 290 291 291 292 293 294 293 292 290 290 290 290 290 290 290 290 289 289 289 289 289 288 288 288 288 289 290 290 291 291 291 291 291 290 290 289 289 289 289 289 288 288
284 284 284 285 286 286 285 285 285 285 285 285 285 284 285 285 285 286 287 287 289 289 288 289 291 292 291 291 290 289 289 288 288 289 289 289 288 288 288 288 288 288 287 287 287 288 289 289 289 289 289 290 290 289 289 288 288 288 289 288 287 287
282 282 283 283 283 283 283 282 282 283 283 283 283 283 283 283 284 284 284 285 286 288 287 287 288 289 289 289 288 288 288 288 287 287 288 288 287 287 287 287 287 287 287 287 287 288 288 288 288 288 288 289 289 288 288 287 287 288 288 287 287 286
281 281 280 280 280 280 280 280 280 280 280 281 281 282 282 282 282 282 282 282 283 284 285 285 285 286 286 287 287 286 287 287 287 287 287 287 287 287 287 287 287 287 287 287 287 287 287 287 287 287 288 288 288 287 287 287 287 288 288 287 286 285
279 278 278 277 277 277 277 278 278 279 279 279 280 281 281 281 280 280 280 281 281 282 282 283 283 284 284 285 285 285 286 286 286 285 287 288 287 287 287 287 287 287 287 287 287 287 287 287 288 288 288 288 288 287 287 287 287 287 287 286 285 285
275 275 275 275 274 274 275 276 276 277 277 278 279 279 279 279 279 279 279 279 280 280 281 281 282 282 283 283 284 284 285 286 286 285 285 286 287 287 287 287 287 287 287 287 287 287 287 287 287 287 287 287 287 287 286 286 287 287 286 286 285 285
273 272 272 272 272 272 273 274 275 276 277 278 278 277 277 277 277 277 278 278 278 279 279 280 281 281 282 282 282 283 283 284 286 286 285 285 286 286 286 286 286 287 286 286 287 286 286 286 287 286 286 286 286 286 286 286 286 286 286 285 285 284
270 270 270 270 270 271 272 273 275 276 277 277 276 275 275 276 276 276 277 277 277 277 278 279 279 280 281 281 282 283 283 283 284 286 286 286 285 286 286 286 286 286 287 287 287 286 286 286 286 286 286 286 286 286 286 286 286 285 285 285 285 284
268 268 268 269 270 271 273 274 275 275 275 274 274 274 275 275 275 275 275 275 276 276 277 277 278 279 280 281 282 282 283 283 283 284 285 286 285 285 286 286 286 286 287 287 286 286 286 286 285 285 285 285 285 286 286 286 286 285 285 285 285 284
267 267 268 269 270 272 273 273 273 272 273 273 274 274 274 275 274 274 274 274 275 275 275 276 277 278 279 281 281 282 283 283 284 284 284 285 285 285 285 286 286 286 286 286 286 286 285 285 285 285 285 285 285 285 286 286 285 285 285 285 284 284
266 267 268 270 271 271 271 270 270 271 272 273 273 274 274 274 273 273 273 273 273 274 275 275 276 277 278 279 281 282 282 283 284 284 284 284 284 285 285 285 286 286 286 286 286 286 285 285 285 285 285 285 285 285 286 286 285 285 285 285 284 284
266 267 269 269 268 268 267 268 269 270 271 271 272 273 272 272 272 272 272 272 272 273 274 274 275 276 277 278 279 280 282 283 283 284 284 284 284 284 285 285 285 285 285 285 285 285 285 285 285 285 285 285 285 286 286 285 285 285 285 285 285 284

ECMWFFLT1_925_thetae_087.txt.gz
Theta_e
306 307 307 308 309 309 310 310 310 310 310 310 309 310 309 309 309 309 309 310 310 309 309 309 310 310 310 310 310 310 311 311 311 312 312 313 313 314 314 315 315 315 316 316 316 316 316 316 315 315 315 315 315 315 315 314 314 313 313 314 314 314
304 305 305 307 307 309 309 309 310 310 309 310 310 309 309 309 310 310 310 310 310 309 309 309 309 310 310 310 310 310 310 310 310 311 311 311 312 312 313 313 314 314 314 314 315 315 315 314 314 314 314 314 314 314 314 314 313 312 311 312 312 312
304 303 304 305 306 308 309 309 309 309 309 310 310 310 310 310 310 310 310 310 310 310 309 309 309 309 309 309 309 309 309 309 309 310 310 310 310 310 311 312 312 312 313 313 313 313 313 313 313 313 313 313 313 313 313 313 312 311 310 310 310 310
303 302 303 304 305 307 307 307 308 308 308 308 308 309 309 309 309 309 310 309 309 309 309 309 309 308 308 308 308 308 308 308 308 308 309 309 309 309 310 310 310 311 311 311 312 312 312 312 312 312 312 312 312 312 312 312 311 311 310 309 309 309
302 302 303 302 303 304 304 305 306 306 307 307 308 308 308 308 308 308 309 309 309 308 308 308 308 308 307 307 307 307 307 307 307 307 308 308 308 308 309 309 309 309 309 310 310 310 311 311 311 311 311 311 311 311 311 311 311 310 309 308 308 308
301 301 301 301 302 302 303 304 304 305 306 306 307 307 307 308 308 308 309 309 308 308 308 308 308 307 307 306 306 306 306 306 307 307 307 307 307 307 308 308 308 308 308 308 309 309 309 310 310 310 310 310 310 311 311 310 310 310 309 307 307 307
300 300 300 299 300 301 302 303 303 304 305 305 306 306 306 307 307 308 308 308 308 308 307 308 307 307 307 307 307 306 306 307 306 306 306 306 307 307 307 307 307 307 307 307 308 308 308 308 308 308 309 309 309 310 309 309 308 308 307 307 306 306
299 299 299 299 300 300 301 302 302 303 303 304 305 305 306 307 306 307 307 307 308 307 307 308 307 307 307 307 307 307 307 307 307 307 306 306 306 306 306 306 306 306 306 306 307 307 307 307 307 307 307 308 308 308 308 308 307 307 306 306 306 306
299 298 298 298 298 299 299 300 301 302 302 303 304 304 306 306 306 307 307 307 307 307 307 307 307 307 307 307 308 307 308 308 307 307 307 306 306 306 305 305 305 305 305 305 306 306 306 306 306 306 307 307 307 307 307 307 306 306 306 306 306 306
298 297 297 297 297 297 298 299 300 300 300 300 301 303 304 305 306 306 306 306 307 306 306 306 306 306 306 307 307 307 307 307 307 307 307 307 306 306 305 305 305 305 305 305 305 305 305 305 305 306 306 306 306 306 306 306 305 304 304 304 305 305
297 296 296 296 297 298 298 299 299 299 299 299 300 301 302 303 304 304 304 305 304 304 305 305 305 305 305 306 306 306 307 306 306 306 306 306 306 306 306 305 305 305 305 305 305 304 304 305 305 305 306 305 305 305 305 304 304 303 303 303 304 305
295 295 295 296 297 297 298 298 298 298 299 299 300 301 301 301 301 302 302 302 302 302 302 303 303 304 304 304 305 305 305 305 306 306 305 305 305 305 305 305 305 304 304 304 304 304 304 304 305 305 305 305 305 304 304 303 302 302 302 303 303 304
294 295 296 296 297 297 297 297 298 298 298 298 299 299 299 299 300 300 300 300 300 300 301 301 301 302 302 302 302 302 303 303 304 304 304 304 304 304 304 304 304 303 303 303 302 303 303 303 303 304 304 304 304 304 303 302 301 302 302 302 303 303
295 295 296 296 297 297 297 297 297 297 298 298 298 298 298 298 298 299 299 298 299 299 300 300 300 300 300 300 300 300 301 301 302 302 302 302 302 302 302 302 302 302 302 301 301 301 301 301 302 302 302 303 303 303 302 300 300 301 301 301 301 302
295 296 296 296 296 296 296 296 297 297 297 297 297 297 298 297 297 298 298 298 298 299 299 299 300 300 300 300 300 300 300 300 300 300 300 300 300 301 300 300 300 300 300 300 300 300 300 300 301 300 301 301 301 302 300 299 299 299 300 300 300 301
296 296 296 296 296 296 296 296 296 296 297 297 297 297 297 297 297 298 298 298 298 298 299 299 299 299 300 300 300 300 300 300 300 300 299 299 299 299 299 299 299 299 299 299 299 299 299 300 300 299 299 300 300 300 300 298 298 298 299 299 299 300
296 296 295 295 295 295 295 296 296 296 297 297 297 297 296 297 297 297 298 298 298 298 298 298 299 299 299 299 299 299 299 299 299 299 299 298 298 298 298 298 298 298 298 298 298 298 299 299 299 299 299 299 299 299 298 297 297 297 298 298 298 299
296 295 295 295 294 294 294 295 296 296 296 296 296 296 296 296 296 297 297 297 297 298 298 297 298 298 298 298 298 298 298 298 298 298 298 298 298 297 297 297 297 296 297 297 297 297 298 299 298 298 298 298 298 298 297 296 296 296 297 297 297 298
295 295 294 294 293 293 293 294 295 295 295 295 295 295 294 294 295 295 295 296 296 297 297 297 297 297 297 297 297 298 298 298 298 298 297 297 298 298 297 297 297 296 296 296 296 296 297 297 298 298 298 298 297 297 296 295 295 295 295 296 296 296
294 294 293 293 292 292 292 293 293 294 294 294 293 293 293 292 292 292 293 294 295 295 296 296 296 296 296 296 296 296 297 297 297 297 297 296 296 297 297 296 297 297 296 295 296 295 295 296 297 296 297 297 297 296 295 295 294 294 294 294 295 295
294 293 293 292 291 291 291 292 293 293 293 293 292 292 291 290 290 291 292 293 294 294 295 295 295 295 295 296 295 295 295 296 296 297 296 296 295 296 296 296 296 297 297 296 295 295 294 295 296 295 295 296 296 296 295 294 293 293 293 293 293 294
293 292 292 291 290 290 290 291 292 292 292 291 291 290 289 289 289 290 291 293 293 294 294 294 294 294 294 294 294 294 294 295 295 295 295 295 295 295 295 295 294 295 297 296 295 295 294 294 295 295 294 295 295 295 294 292 292 292 292 292 293 293
291 291 290 289 289 289 289 290 290 290 290 289 289 288 287 287 287 289 290 292 292 293 293 293 293 293 293 293 292 293 294 294 294 294 294 294 294 294 294 295 294 294 295 295 294 294 293 293 293 294 294 294 294 294 294 292 291 291 291 292 292 292
290 290 289 288 288 288 288 288 288 287 287 287 287 286 285 285 285 287 288 290 291 291 292 292 292 292 292 292 292 292 294 294 294 294 293 292 292 292 292 293 292 292 293 295 294 293 293 293 292 292 292 293 293 293 293 292 292 291 291 290 291 291
287 287 287 287 286 286 286 285 285 285 284 285 284 284 283 283 284 285 286 288 289 290 290 291 291 292 292 292 291 291 292 293 293 293 292 290 290 290 290 291 290 290 290 292 294 294 293 292 292 292 291 291 292 292 292 292 292 291 290 290 290 290
285 286 286 285 284 283 283 282 282 282 282 282 282 282 282 282 283 284 286 287 288 289 290 290 291 291 291 291 290 289 290 290 290 290 290 289 287 287 288 288 288 288 288 289 291 292 292 291 291 291 291 291 291 292 291 291 291 291 290 289 289 289
283 284 284 283 281 280 280 279 279 279 280 281 281 281 281 282 282 283 285 286 287 287 288 289 289 289 289 289 288 287 287 288 288 288 289 288 286 286 286 287 287 287 287 287 288 290 291 290 289 290 290 290 291 291 291 291 291 290 289 289 288 289
281 280 280 279 279 278 278 278 278 277 278 280 281 281 280 280 281 281 282 284 285 285 285 286 287 287 287 286 285 284 284 285 285 285 286 286 285 285 286 286 286 286 286 287 287 288 289 289 289 288 288 289 290 290 291 291 290 290 289 289 288 288
278 276 276 276 277 278 279 279 279 278 278 279 279 279 279 278 278 279 279 279 280 281 281 281 282 283 283 283 283 282 283 283 283 283 284 284 285 285 285 285 286 286 286 286 287 287 288 288 288 288 288 288 289 289 290 289 289 289 289 289 288 288
274 274 274 275 276 278 280 280 280 279 279 278 277 277 277 276 275 276 276 276 276 277 277 277 277 278 279 279 279 280 281 282 282 282 283 284 284 284 284 285 285 285 286 286 286 286 286 286 287 287 287 288 288 288 288 288 288 288 288 288 288 288
272 272 272 273 274 276 277 278 278 278 276 276 276 276 275 274 274 274 275 275 276 276 276 276 276 276 276 277 277 278 279 280 281 281 283 285 285 283 284 284 284 285 285 285 285 285 285 285 286 287 287 287 287 287 287 287 287 287 287 287 288 287
270 270 271 272 272 273 274 274 275 275 275 275 275 274 273 273 274 274 275 275 275 275 275 275 275 275 275 276 276 277 279 280 281 281 281 284 285 284 283 284 284 285 285 285 285 285 285 285 286 287 287 287 287 287 286 286 286 286 286 287 287 287
270 270 271 271 272 272 272 272 273 274 273 273 273 272 272 273 274 274 274 274 274 274 274 274 274 274 275 275 276 277 278 279 281 282 282 282 283 284 284 284 284 285 285 285 285 286 286 286 286 286 286 286 286 286 286 286 286 286 286 286 286 286
269 270 270 270 270 271 271 271 272 272 272 272 271 271 272 272 273 273 274 274 273 273 273 273 273 274 274 275 275 276 277 277 278 281 283 283 282 282 283 284 284 285 285 285 286 286 286 286 286 286 287 286 286 286 286 286 286 286 286 286 287 286
268 268 268 268 269 270 270 270 271 270 270 270 270 269 270 271 272 273 273 272 272 272 272 272 273 273 273 274 274 275 276 277 277 279 280 282 282 281 282 283 284 284 285 285 286 286 286 286 286 286 286 286 286 286 286 286 285 285 286 287 287 286
266 267 267 268 268 268 268 268 269 268 268 268 268 269 269 270 270 270 270 270 271 271 271 271 272 272 272 273 274 274 275 276 277 277 278 280 281 281 282 282 283 284 284 285 285 285 286 286 286 286 286 286 286 286 286 286 286 286 286 287 287 286
265 266 266 266 266 266 266 267 267 266 266 267 268 268 268 268 268 268 268 269 269 269 270 270 270 271 271 272 273 274 274 275 276 277 278 279 280 281 281 282 282 283 284 284 284 285 285 286 286 286 286 286 286 286 286 286 285 286 286 286 286 286
265 265 265 264 264 264 264 265 266 265 265 266 267 267 267 266 266 266 266 267 267 267 268 268 268 269 270 271 272 273 274 275 276 276 278 279 280 280 281 282 282 283 283 284 284 284 285 285 285 285 286 286 286 286 286 286 285 286 286 286 286 286

ECMWFFLT1_925_thetae_093.txt.gz
Theta_e
310 310 309 308 308 307 306 307 307 308 308 308 308 309 309 309 309 309 309 309 309 309 309 309 309 309 309 309 309 309 309 308 309 309 310 310 309 309 309 309 309 309 310 310 310 311 311 311 311 312 312 313 313 313 313 313 314 314 314 314 314 314
309 308 308 308 307 307 306 306 307 307 307 307 308 308 308 309 309 309 309 309 309 308 308 308 308 308 308 308 308 308 307 307 307 307 307 307 308 308 308 308 308 308 308 308 309 309 309 309 309 309 310 310 310 310 310 310 311 311 311 311 311 311
308 307 307 307 306 306 306 306 305 305 305 306 306 307 307 308 308 308 308 308 308 307 307 307 307 307 307 307 307 307 307 307 307 307 307 307 307 307 307 307 307 307 307 307 307 307 307 308 308 308 308 308 307 307 308 308 308 308 308 308 309 309
308 307 307 307 307 306 306 305 305 304 304 304 305 305 306 306 306 306 307 307 307 306 306 306 306 306 306 306 306 307 307 307 307 306 307 306 306 306 306 306 306 306 306 306 306 306 306 306 306 306 306 306 306 306 306 306 306 306 306 306 306 307
308 307 307 307 307 306 305 305 304 304 303 303 304 305 305 305 306 306 306 306 306 306 305 306 306 306 306 306 306 306 306 306 306 306 306 305 305 305 305 305 305 305 305 305 305 305 305 305 305 305 305 305 305 305 305 304 304 304 304 304 304 304
308 308 308 307 306 306 305 304 304 303 303 303 303 304 304 305 305 305 305 305 305 305 306 306 305 305 306 306 306 306 306 306 306 305 305 305 305 305 305 305 305 305 305 305 305 305 304 304 304 304 304 304 304 304 304 304 303 303 302 302 302 302
308 308 307 306 306 305 304 304 303 302 302 302 302 302 303 304 304 305 305 305 304 304 304 303 303 303 303 303 303 303 303 303 303 303 303 303 304 304 304 304 304 304 304 304 304 304 304 304 303 303 303 303 303 302 303 303 302 302 301 301 301 300
308 307 306 305 304 304 304 303 302 302 301 301 301 301 302 303 303 303 303 302 302 301 300 300 300 300 300 300 300 300 300 300 300 300 300 300 301 301 301 301 301 302 302 302 302 303 303 303 302 302 302 301 301 301 301 301 301 301 301 301 300 299
306 306 305 304 303 302 302 301 301 301 300 300 300 300 300 300 300 300 300 299 299 299 299 299 299 299 299 298 299 298 298 298 299 298 299 299 299 299 299 299 299 300 300 300 301 301 301 301 301 301 301 301 300 300 300 300 300 300 300 300 299 299
306 305 304 303 302 301 301 300 300 299 299 298 298 298 298 298 298 298 298 298 298 298 298 298 297 297 297 297 297 297 297 297 297 297 297 297 297 298 298 298 298 298 298 298 299 299 299 300 300 300 301 300 300 299 299 299 299 300 300 300 300 299
305 305 303 302 302 301 301 300 299 299 298 297 297 297 297 298 298 298 297 297 297 297 297 297 297 296 296 296 296 296 296 296 296 296 296 296 296 296 296 296 296 297 297 297 297 298 298 298 298 299 300 300 300 299 299 299 299 299 300 300 301 301
305 304 302 302 301 301 300 300 299 298 297 297 297 297 297 297 297 297 297 297 297 296 296 296 296 296 296 296 295 295 295 295 295 295 295 295 295 295 295 295 295 296 296 296 296 296 296 296 297 298 299 299 299 299 298 298 298 299 299 299 300 301
304 303 302 301 300 300 299 299 298 297 296 296 297 297 297 297 297 297 296 296 296 296 296 295 295 295 295 295 295 295 295 295 294 294 294 294 294 294 294 294 295 295 295 295 295 295 295 295 295 296 297 298 298 298 297 297 297 298 298 298 298 299
303 302 301 300 299 299 298 298 297 296 296 296 296 296 296 296 296 296 296 295 295 295 295 295 295 294 294 294 294 294 294 294 294 294 294 294 294 294 294 294 294 294 294 294 294 294 294 294 294 295 295 296 297 297 297 296 296 296 296 296 296 297
302 301 300 299 299 297 297 297 296 296 295 295 295 295 295 295 294 295 294 294 294 294 294 294 294 294 294 294 293 293 293 293 293 293 293 293 293 293 293 293 293 293 293 292 293 293 293 293 293 293 293 294 295 296 296 296 296 296 295 295 295 295
301 300 299 298 297 296 296 296 295 295 295 295 294 293 293 293 293 293 293 293 293 293 293 293 293 293 293 292 292 292 292 292 292 292 292 292 291 291 291 291 291 291 291 291 291 291 291 292 292 292 292 292 293 294 294 294 295 295 295 295 294 294
299 298 297 296 295 295 295 294 294 294 294 293 292 292 292 292 292 292 292 292 292 292 292 292 292 291 291 291 291 291 291 291 291 291 291 290 290 290 290 290 290 290 290 290 290 290 290 290 290 291 291 291 291 292 293 293 293 294 293 294 294 294
298 298 296 295 294 294 294 293 293 293 292 291 291 291 290 291 290 290 290 290 290 290 290 290 290 290 290 289 289 290 290 290 290 290 289 289 289 289 289 289 289 289 289 289 289 289 290 290 290 290 290 290 290 291 291 291 292 292 293 293 293 293
297 296 294 294 293 293 292 292 292 291 291 291 290 290 289 289 289 289 289 289 288 288 288 288 288 288 288 288 288 289 289 289 289 289 288 288 288 288 289 289 289 289 289 289 289 289 289 290 290 290 289 290 290 290 290 291 291 291 292 292 292 293
295 294 293 292 291 291 291 290 291 291 290 290 290 289 288 288 288 287 287 287 286 286 286 286 286 286 287 287 288 288 288 288 288 288 288 288 288 288 288 288 289 289 289 289 289 289 289 290 290 290 289 289 289 289 289 290 290 290 291 291 292 292
293 292 292 291 290 289 289 289 289 290 290 289 289 287 286 286 286 285 285 285 285 285 285 285 286 286 287 287 287 287 288 288 288 288 288 288 288 288 288 288 288 289 289 289 289 289 289 289 289 290 290 289 289 289 289 289 289 290 290 290 291 291
291 291 290 289 288 288 288 288 288 288 288 288 286 285 284 284 284 284 284 284 284 285 285 286 286 287 287 288 288 288 288 288 288 288 288 288 288 288 288 288 288 288 289 289 289 289 289 289 289 289 289 289 289 289 289 289 289 289 289 290 290 290
290 289 288 287 286 286 287 287 286 286 286 286 284 283 283 283 283 284 284 285 286 286 287 287 288 288 288 288 288 288 288 288 288 287 287 288 288 287 287 288 287 287 288 288 288 288 288 288 288 288 289 289 289 289 289 289 289 289 289 289 289 289
288 287 285 284 284 285 286 286 285 284 284 283 282 282 282 283 285 285 286 287 287 288 288 288 288 288 288 288 288 288 288 287 287 287 287 286 286 286 286 287 287 286 287 288 288 288 288 288 288 288 288 288 288 288 288 288 288 288 288 288 288 288
286 285 283 282 283 284 285 286 285 284 283 282 282 282 284 285 286 286 287 287 288 288 288 288 288 288 288 287 287 287 287 287 287 287 286 285 285 285 285 286 286 286 286 287 287 287 287 288 288 288 288 288 288 288 288 288 288 288 288 288 288 288
284 282 281 281 282 283 284 285 285 283 282 281 282 282 283 284 285 286 287 287 287 287 287 287 287 287 287 286 286 286 286 286 286 286 285 284 283 283 284 284 285 285 285 285 286 286 287 287 287 287 287 287 287 287 287 288 288 288 288 288 287 287
283 281 279 280 281 283 284 284 284 282 281 280 280 281 282 283 285 286 286 286 286 286 286 286 286 285 285 285 284 284 284 284 284 284 283 282 281 282 282 283 283 284 284 285 285 285 286 286 286 286 286 286 286 287 287 287 287 288 288 287 287 287
281 280 278 279 280 282 282 282 282 281 279 278 279 280 282 283 285 285 285 285 284 283 283 283 283 283 283 283 282 281 281 281 280 280 280 279 280 281 282 282 282 283 283 284 284 284 284 284 285 285 285 286 286 286 287 287 287 287 287 287 286 286
279 278 277 277 278 280 281 280 280 278 277 277 279 280 281 283 283 283 282 281 280 280 279 279 279 279 280 280 280 279 279 278 278 278 278 278 279 280 280 280 281 281 282 282 282 283 283 283 284 284 284 285 285 285 286 286 286 286 286 286 286 286
278 277 276 275 276 278 279 278 276 276 276 277 278 279 281 281 280 279 278 277 277 277 277 276 276 276 277 277 277 277 277 277 277 277 277 277 278 278 278 279 279 280 280 281 281 281 282 282 282 283 283 283 284 284 284 285 285 285 285 286 286 286
277 276 275 274 275 276 276 274 274 275 276 277 278 279 280 279 277 275 275 275 275 275 275 275 275 275 275 275 275 275 275 276 276 276 276 278 277 276 277 278 278 278 279 279 280 280 280 281 281 281 282 282 282 283 283 284 284 285 285 285 286 286
277 276 274 274 275 275 274 274 274 275 276 277 278 278 278 277 275 274 274 274 274 274 274 274 273 273 273 273 274 274 275 276 276 275 275 277 278 277 276 277 278 278 278 279 279 279 280 280 280 280 281 281 282 282 283 283 284 284 285 285 285 285
276 276 275 274 275 275 273 273 274 275 276 277 276 276 276 275 273 273 273 273 273 272 272 272 272 272 272 272 273 273 273 275 276 277 276 275 275 276 276 276 276 277 277 278 278 278 279 279 280 280 280 281 281 281 282 282 283 283 284 284 284 285
275 275 275 274 274 274 273 274 275 276 275 275 274 273 274 273 272 272 272 272 271 271 271 271 271 271 271 271 272 272 272 272 273 275 277 276 275 274 274 274 275 275 276 277 277 278 278 278 279 279 279 280 280 280 281 282 282 282 283 283 284 284
274 274 274 274 275 276 276 276 275 274 273 273 272 272 272 272 271 271 271 271 270 270 270 270 270 270 270 270 270 270 270 270 270 271 273 275 275 274 273 273 274 274 275 275 276 276 277 277 277 278 278 278 279 280 280 281 281 282 282 283 284 284
274 275 276 277 277 277 276 274 272 272 271 270 270 270 271 271 271 272 272 271 270 269 268 268 268 268 268 269 269 268 268 269 269 269 269 271 272 273 273 273 273 273 274 274 274 275 275 275 276 276 277 277 278 279 280 281 281 281 282 282 283 284
274 275 276 276 275 274 272 271 270 269 269 269 269 270 271 271 272 272 272 271 269 268 268 267 267 267 267 267 267 267 267 267 268 268 268 269 269 270 271 271 271 272 272 272 272 273 273 274 275 275 276 277 277 278 279 280 280 280 281 281 283 284
273 273 272 272 271 271 270 269 267 267 267 269 270 270 271 271 272 272 271 270 268 268 268 267 267 267 266 266 266 266 266 267 267 267 268 268 268 269 269 270 270 270 270 270 270 271 272 272 273 274 275 276 277 277 278 278 278 279 280 281 282 284

ECMWFFLT1_925_thetae_096.txt.gz
Theta_e
309 308 308 308 308 308 308 308 308 308 308 308 308 308 308 308 308 308 309 309 308 308 308 308 309 309 309 309 309 309 308 308 308 308 308 308 308 307 307 308 308 307 307 307 307 307 307 308 307 307 307 307 307 307 307 307 307 307 307 307 308 308
309 308 308 308 307 307 307 307 307 307 307 307 307 307 307 307 307 308 308 308 308 308 308 308 308 308 308 308 308 308 307 307 306 306 306 306 306 307 306 307 306 306 306 306 306 306 306 306 306 306 306 306 306 306 305 305 304 304 304 304 304 304
308 307 307 307 307 307 307 307 307 307 307 307 307 307 307 307 307 308 308 308 308 308 308 308 308 307 307 307 307 307 306 306 306 306 305 306 306 306 306 306 306 306 305 305 305 305 305 305 305 304 304 304 304 304 304 304 303 303 303 303 303 303
308 307 307 307 306 306 306 306 306 306 306 306 306 306 306 306 306 306 307 307 307 307 307 306 306 306 306 306 306 306 306 306 305 305 305 305 305 305 305 305 305 304 304 304 304 304 304 303 303 303 303 303 303 303 303 302 302 302 302 302 302 302
307 307 307 306 306 306 305 305 305 304 304 304 305 305 305 304 304 304 305 305 305 305 305 305 305 305 305 306 305 305 305 304 304 304 304 303 303 302 302 301 301 301 301 301 301 301 301 301 301 301 301 301 301 301 301 301 301 301 301 301 301 301
307 307 307 306 305 305 304 304 304 303 303 303 304 304 303 303 303 304 304 304 304 304 304 304 304 304 304 303 302 302 301 301 300 300 300 300 299 299 299 298 298 298 298 298 298 299 298 298 298 299 299 299 300 299 299 299 299 299 299 299 299 299
307 307 306 305 305 304 304 303 303 303 303 302 303 303 303 303 303 303 303 303 303 302 302 301 301 301 300 299 299 299 298 298 298 298 298 297 297 297 297 297 297 297 297 297 297 297 297 297 297 297 298 298 298 298 298 298 298 298 298 298 298 298
306 306 305 305 304 303 303 302 302 302 302 302 302 302 302 302 301 301 300 300 300 299 299 299 298 298 298 297 297 297 297 297 296 296 296 296 296 296 295 295 295 295 295 295 295 295 295 295 295 296 296 297 297 297 297 298 298 298 298 298 298 298
305 305 304 304 303 303 302 301 301 301 301 301 301 301 300 300 299 299 298 298 298 298 298 297 297 297 296 296 296 295 295 295 295 295 295 295 295 294 294 294 294 294 294 294 294 294 294 294 294 294 295 295 296 296 296 296 296 296 296 296 296 296
305 303 303 303 302 301 301 301 300 300 299 299 299 299 299 298 298 298 297 297 297 297 296 296 296 296 295 295 295 295 295 294 294 294 294 294 294 294 294 294 294 294 294 293 293 293 293 293 293 293 293 293 294 294 295 295 295 295 295 295 295 295
304 302 302 302 301 301 300 300 299 299 298 298 298 298 298 298 297 297 297 297 296 296 296 295 295 295 295 294 294 294 294 294 294 294 294 294 293 293 293 293 293 293 293 293 293 292 292 292 292 292 292 292 292 292 293 293 293 293 293 293 293 293
302 301 302 301 300 300 300 299 298 298 297 297 297 297 297 297 297 296 296 296 295 295 295 295 294 294 294 294 293 293 293 293 293 293 293 293 293 293 293 293 293 292 292 292 292 292 292 291 291 291 291 291 291 291 291 291 291 291 291 292 292 292
302 301 301 301 300 300 299 298 298 297 297 297 297 297 296 296 296 295 295 295 294 294 294 294 294 293 293 293 293 293 293 293 293 293 293 293 293 292 292 292 292 292 291 291 291 291 291 291 290 290 290 290 290 290 290 290 290 290 290 290 291 291
301 300 300 300 300 299 298 298 297 296 296 296 296 296 295 295 295 294 294 294 293 293 293 293 293 293 293 293 292 292 292 292 292 292 292 292 292 291 291 291 291 290 290 290 290 290 290 290 290 290 289 289 289 289 289 289 289 289 289 290 290 290
301 300 300 299 299 298 298 297 296 296 295 295 295 295 294 294 293 293 293 293 293 293 293 292 293 292 292 292 292 292 292 292 292 291 291 291 291 290 290 290 290 290 289 289 289 289 289 289 289 289 289 289 289 289 289 289 289 289 289 289 289 289
300 299 299 298 298 298 297 296 296 295 295 294 294 293 293 293 293 293 293 292 292 292 292 292 292 292 291 291 291 291 291 291 290 290 290 289 289 289 289 289 289 289 289 289 288 288 289 289 289 289 289 289 289 289 289 289 289 289 289 289 289 289
299 298 298 297 297 297 296 296 295 294 293 293 293 293 292 293 293 292 292 292 291 291 291 291 291 290 290 290 290 290 290 290 289 289 289 289 288 288 288 288 288 288 288 288 288 288 288 288 288 288 288 288 288 288 288 288 288 288 288 289 289 289
298 297 296 296 296 296 295 294 294 293 292 292 292 292 292 292 292 291 291 290 290 289 289 290 290 290 289 289 289 289 289 289 288 288 288 288 288 288 288 288 288 288 288 288 288 288 288 289 288 288 288 288 288 288 288 288 288 288 288 288 288 288
297 296 296 295 295 295 294 293 293 292 292 292 291 291 291 291 290 289 289 288 288 288 288 289 289 289 289 289 289 288 288 288 288 287 287 287 288 288 288 288 288 288 288 288 288 288 288 288 288 288 288 288 288 288 288 287 288 288 288 288 288 288
296 295 295 295 294 294 293 292 292 292 292 291 290 290 289 289 288 288 287 286 286 287 287 288 288 288 288 288 288 288 287 287 287 287 287 287 287 288 288 287 288 288 288 288 288 288 287 288 288 287 287 287 287 287 287 287 287 287 287 287 287 287
295 294 294 294 293 293 292 292 292 291 291 290 289 288 287 287 286 286 286 285 286 286 287 287 288 287 288 287 287 286 286 287 287 287 287 287 287 287 287 287 287 287 288 287 287 287 287 287 287 287 287 286 286 286 286 286 287 287 287 287 287 287
293 292 292 291 291 291 291 291 291 290 290 289 288 286 286 285 285 285 285 285 286 286 287 287 287 287 287 286 286 286 286 286 287 287 287 287 287 287 287 287 287 287 287 287 287 287 287 286 286 287 286 286 285 285 285 286 286 286 287 286 287 287
291 290 290 290 290 290 290 291 290 289 288 287 286 285 285 285 285 285 285 285 285 286 286 286 286 286 285 285 285 286 286 286 287 287 287 286 287 286 286 286 286 286 287 287 286 286 286 285 285 285 285 284 284 284 284 285 285 286 286 286 286 286
289 288 287 288 289 289 289 289 289 288 286 285 284 284 284 284 285 285 284 284 284 285 285 285 284 284 284 285 286 286 287 286 286 286 286 286 286 286 286 285 285 285 285 286 286 285 284 284 284 283 283 283 283 283 283 284 285 285 285 286 286 286
286 285 285 286 288 288 288 288 288 286 284 283 283 284 284 284 284 284 283 284 284 284 284 284 284 284 285 286 286 286 286 286 286 286 285 285 285 284 284 283 282 282 282 283 284 283 283 282 282 282 282 282 282 282 282 284 284 284 285 285 286 286
283 283 283 284 286 287 287 287 286 284 282 282 283 283 283 283 283 283 282 283 283 283 283 284 285 285 285 286 286 286 286 286 285 285 284 283 282 281 281 280 280 280 280 280 281 281 281 281 281 281 281 281 281 281 282 283 283 283 283 283 283 284
283 282 281 282 284 284 285 285 284 283 281 282 282 281 281 282 282 282 282 282 283 284 284 285 285 285 285 285 285 285 285 284 284 283 282 281 280 279 278 278 278 278 278 278 279 279 279 280 280 279 280 280 280 280 280 281 281 281 281 281 282 282
282 281 280 280 281 282 282 282 282 282 281 281 280 280 281 282 281 282 282 283 284 285 285 285 285 285 285 285 284 284 283 282 281 280 279 279 278 277 277 277 277 277 277 278 278 278 278 278 278 279 279 279 279 279 279 280 280 280 281 281 281 281
280 279 278 278 279 280 280 280 281 281 280 280 280 280 281 282 282 283 284 284 284 285 284 284 284 284 284 283 283 283 282 281 279 278 277 277 277 276 276 276 276 276 277 277 277 277 277 277 278 278 278 278 278 279 279 280 280 280 280 280 281 281
280 278 277 277 277 278 278 278 279 279 279 279 280 281 282 282 283 283 284 283 283 283 282 282 282 282 282 282 282 281 281 280 278 277 276 276 276 276 276 276 276 276 276 276 276 276 277 277 277 277 277 278 278 279 279 279 279 279 279 280 280 280
279 278 277 277 277 277 277 277 278 278 278 279 280 281 282 283 283 283 282 282 281 281 281 281 280 280 280 280 279 279 278 278 277 276 276 276 275 275 275 276 276 276 276 276 276 276 276 276 276 277 277 278 278 278 278 278 278 279 279 279 279 280
279 278 277 277 277 276 276 277 277 277 278 280 281 281 281 282 282 281 280 279 279 279 279 278 278 277 277 277 277 277 277 277 277 276 276 275 275 274 274 275 275 275 275 275 276 276 276 276 276 276 276 277 277 277 277 277 278 278 278 279 279 280
277 277 277 277 276 275 276 276 277 277 278 279 280 280 280 280 280 279 278 278 278 278 277 276 275 275 275 275 276 276 277 277 277 277 275 274 274 274 274 274 274 274 274 275 275 274 275 275 275 275 275 275 275 276 276 276 277 277 278 278 279 279
276 276 277 277 275 275 275 276 277 277 278 278 278 278 279 279 279 279 278 277 277 276 275 274 274 274 275 275 275 275 274 274 274 275 275 274 273 273 273 273 273 273 273 273 273 273 273 273 273 273 274 274 274 275 275 275 276 276 277 277 277 278
276 277 277 276 275 274 275 276 276 276 276 277 277 278 278 279 279 278 277 276 275 275 274 274 274 274 274 274 273 272 271 270 270 271 272 273 273 273 272 272 272 271 271 271 271 271 271 272 272 272 273 273 273 273 274 275 275 276 276 275 276 276
277 276 276 276 275 274 274 275 275 275 275 276 277 277 278 279 278 277 276 275 274 274 273 273 273 273 272 271 270 270 269 269 268 268 269 270 271 271 270 270 270 270 269 269 270 270 270 271 271 271 272 272 272 273 273 274 274 274 273 274 274 275
276 275 274 275 274 273 273 274 274 275 275 276 277 277 278 278 276 275 275 274 273 272 272 272 272 272 271 271 270 269 269 269 268 268 268 268 268 268 268 268 269 269 268 268 269 269 269 270 270 270 271 271 272 272 273 273 272 272 272 272 273 274
274 273 273 273 273 272 272 273 274 275 275 276 277 277 277 276 275 274 274 272 271 271 271 271 271 271 271 270 270 269 268 268 268 267 267 267 267 267 267 267 268 268 268 268 268 268 268 269 269 270 270 271 271 271 271 271 271 271 272 272 273 273

ECMWFFLT1_925_thetae_102.txt.gz
Theta_e
307 309 310 312 315 316 317 318 317 317 318 318 318 319 320 320 321 322 322 322 322 322 322 321 320 319 318 317 315 315 313 312 312 311 310 309 308 307 306 306 306 305 305 304 302 301 300 299 298 297 296 296 295 295 294 294 294 293 293 293 293 292
306 308 309 310 312 315 317 317 317 316 316 316 317 317 318 319 319 320 320 320 320 319 318 316 315 315 315 313 313 312 311 311 310 309 307 306 306 305 305 305 304 302 301 300 298 297 296 296 295 294 294 294 294 294 293 293 293 293 293 292 292 292
306 307 307 308 310 312 314 315 315 315 314 314 315 316 316 316 317 317 316 316 316 315 314 314 313 313 313 312 311 310 309 308 307 306 305 305 305 304 302 301 300 298 297 296 296 295 294 294 294 294 294 294 294 293 293 293 292 292 292 291 291 291
304 305 306 306 307 308 309 311 312 312 312 313 313 315 315 315 314 314 314 313 314 313 312 312 312 311 310 309 308 307 306 305 305 304 304 303 301 300 298 298 296 296 295 295 294 294 294 294 294 293 293 293 293 292 292 292 291 291 291 290 290 290
304 304 304 305 305 306 306 308 309 309 310 311 312 313 312 312 312 311 311 311 311 310 309 309 309 308 307 306 305 305 304 304 303 302 300 299 298 297 296 295 295 294 294 294 294 294 293 293 293 293 292 292 292 291 291 290 290 290 290 290 289 289
302 302 303 303 303 304 305 306 306 307 308 308 310 310 309 309 309 308 308 308 308 307 307 307 306 304 304 304 304 303 302 301 300 298 297 296 296 295 294 294 294 294 294 294 293 293 293 292 292 292 291 291 290 290 290 290 289 289 289 289 289 289
300 301 301 302 302 303 303 304 305 305 306 306 307 307 307 307 307 306 306 306 305 305 304 303 303 303 303 303 302 301 299 298 297 296 295 295 294 294 294 294 293 293 293 293 293 292 292 291 291 290 290 290 289 289 289 289 289 289 289 288 288 288
300 300 301 301 301 302 302 303 304 304 304 305 305 305 305 305 305 305 304 304 303 302 302 302 302 302 301 300 299 297 297 295 295 294 294 294 294 294 293 293 293 293 292 292 291 291 290 290 289 289 289 289 289 289 289 288 288 288 288 288 288 287
301 300 300 301 300 301 302 302 303 303 303 303 303 303 303 303 303 303 302 302 301 301 301 300 300 299 298 297 296 295 295 294 294 294 294 293 293 293 293 293 293 292 291 291 290 290 289 289 289 289 288 288 288 288 288 288 287 287 287 287 287 287
302 300 299 300 300 300 301 301 302 302 302 301 301 302 302 302 301 301 301 301 300 299 299 298 297 296 296 295 295 294 294 294 294 293 293 293 293 293 293 292 291 291 290 290 289 289 289 288 288 288 288 288 287 287 287 287 287 287 287 287 287 286
302 299 299 299 299 299 300 300 300 300 300 300 300 301 301 301 301 300 300 299 298 297 297 296 295 295 294 294 294 294 294 293 293 293 292 292 292 292 291 291 290 290 289 289 289 289 288 288 288 287 287 287 287 287 287 286 286 286 286 286 286 286
301 299 298 298 298 298 299 299 299 300 300 300 299 300 300 300 300 299 298 298 297 296 295 294 294 294 294 294 294 293 293 292 292 292 292 292 291 291 290 290 290 289 289 289 289 288 288 287 287 287 286 286 286 286 286 286 286 286 285 285 285 285
300 298 298 297 297 298 298 299 299 299 299 299 299 299 299 299 299 298 297 296 295 295 294 294 294 294 293 293 293 292 292 292 292 292 291 291 290 290 290 289 289 289 289 289 288 287 287 287 287 286 286 286 286 285 285 285 285 285 285 285 284 284
300 298 298 297 298 298 298 298 299 298 299 298 298 298 297 297 297 296 296 295 294 294 294 294 293 293 292 292 292 292 292 291 291 291 290 290 289 289 289 289 289 289 288 288 287 287 287 287 286 286 286 286 286 285 285 285 285 285 284 284 284 284
301 299 299 298 298 298 298 299 299 299 299 298 298 297 296 296 296 295 295 294 294 294 293 293 293 292 292 292 291 291 291 291 290 290 289 289 289 289 288 288 288 288 288 287 287 287 286 286 286 286 286 286 285 285 285 285 285 285 284 284 284 283
301 300 300 299 298 298 298 299 299 299 298 297 297 296 295 295 295 294 294 293 293 293 292 292 292 292 291 291 291 291 290 290 290 289 289 289 288 288 288 288 287 287 287 287 286 286 286 286 286 285 285 285 285 285 285 285 285 284 284 284 283 283
301 300 299 299 299 298 298 298 298 297 297 296 295 295 294 294 294 293 293 293 292 292 291 291 291 291 291 290 290 290 289 289 289 289 288 288 288 288 287 287 287 286 286 286 286 285 285 285 285 285 285 285 284 284 284 285 285 284 284 283 282 282
302 301 300 299 298 297 297 297 297 296 295 295 294 294 294 293 293 292 292 292 291 291 291 291 291 291 290 290 289 289 289 289 288 288 288 288 287 287 287 286 286 286 285 285 285 285 285 285 285 284 284 284 284 284 284 284 284 284 283 282 281 281
303 301 300 299 297 297 296 296 296 295 294 293 293 293 292 292 292 291 291 290 290 290 290 290 291 290 289 289 289 289 288 288 288 288 287 287 287 286 286 286 285 285 285 285 284 284 284 284 284 284 283 283 283 283 283 283 283 283 282 281 280 280
302 300 299 298 297 296 296 296 295 294 293 292 292 291 291 291 290 290 290 289 289 289 290 290 290 289 289 288 288 288 288 288 288 287 287 287 286 286 286 285 285 284 284 284 284 284 284 283 283 283 283 283 283 282 282 282 281 281 281 281 280 280
301 299 298 297 296 296 295 295 294 293 292 291 291 290 290 290 289 289 289 289 289 289 289 289 289 289 288 288 288 288 288 287 287 287 286 286 286 285 285 285 284 284 283 283 283 283 282 282 283 283 282 282 281 280 280 280 280 279 279 279 279 279
299 298 297 297 296 295 295 295 293 292 291 290 290 289 289 289 289 289 289 289 288 288 288 288 288 288 288 288 288 287 287 287 286 286 286 285 285 284 284 284 284 284 283 282 282 282 281 281 282 282 281 280 279 279 279 278 278 278 278 278 278 278
299 298 297 296 296 295 294 294 292 291 290 289 289 288 288 289 288 288 288 288 288 288 288 287 288 288 287 287 287 287 286 286 286 286 285 285 284 284 284 284 284 283 282 281 280 281 281 281 280 280 279 278 278 278 278 278 277 277 277 277 277 277
296 297 295 295 295 294 293 293 291 290 289 288 288 288 288 288 287 287 288 288 287 287 287 287 287 287 287 287 286 286 286 286 285 285 284 284 284 283 283 283 283 282 281 279 279 280 280 279 279 278 278 277 276 277 277 277 277 277 277 276 276 276
294 295 294 293 293 293 292 292 290 289 288 288 287 288 287 287 287 287 287 287 287 287 286 286 286 286 286 286 286 286 286 285 284 284 284 284 284 283 283 282 281 280 279 279 279 279 278 278 277 277 277 276 275 275 276 277 277 277 276 276 276 276
293 292 292 292 292 292 291 291 290 288 287 287 287 287 287 286 286 286 286 286 286 286 286 286 286 286 286 285 285 285 285 284 284 284 284 284 283 282 281 279 279 279 280 280 280 279 278 277 276 276 276 275 275 275 276 276 276 276 276 276 276 275
291 290 290 290 291 291 290 290 289 288 286 287 287 287 286 286 285 285 286 286 285 285 285 285 285 285 285 285 285 284 284 284 284 284 283 283 282 281 280 279 279 279 279 279 279 278 278 276 275 275 275 274 274 274 275 276 275 276 276 276 275 275
290 289 289 289 289 290 289 289 289 288 287 287 287 286 286 286 285 285 285 285 285 285 284 284 284 284 284 284 283 284 284 284 284 283 282 281 280 279 279 279 279 279 278 277 276 276 276 275 275 274 274 274 274 274 275 275 275 275 275 275 275 276
288 287 287 287 288 288 289 288 288 288 287 287 286 286 285 285 285 285 285 284 284 284 284 284 284 284 283 283 283 283 283 283 282 281 280 279 279 279 279 278 278 277 276 275 275 275 275 275 274 274 273 273 274 274 274 274 274 275 275 275 275 275
287 286 286 286 287 287 287 287 286 286 287 287 286 285 285 285 285 285 284 284 283 283 283 283 284 283 282 282 282 283 283 282 281 280 279 278 278 278 278 277 277 276 275 274 273 274 274 274 273 273 273 273 274 274 274 274 275 275 275 275 275 275
286 286 285 286 286 286 286 286 286 286 287 287 286 285 285 285 284 284 283 282 282 282 282 282 282 282 282 282 282 281 281 280 280 279 278 278 278 278 277 277 276 275 275 274 273 273 272 273 273 273 274 274 274 275 274 274 275 275 274 274 274 273
285 285 285 285 285 285 286 285 285 286 286 286 285 284 284 284 283 282 282 281 282 282 282 281 281 281 281 281 281 280 280 278 277 277 277 278 277 277 276 275 275 274 274 274 274 273 272 272 273 273 273 274 274 274 274 274 274 274 274 273 273 272
284 284 284 284 284 284 285 284 284 284 284 284 284 284 284 284 283 282 281 281 282 282 281 281 281 280 280 280 280 279 279 277 277 277 277 277 276 276 275 274 274 274 273 273 273 273 272 272 272 272 272 273 273 273 273 273 273 272 272 272 271 270
283 283 283 283 283 283 283 283 283 283 283 283 283 283 283 283 284 283 282 282 282 281 280 280 280 280 279 279 278 278 278 278 277 277 276 276 276 276 275 274 274 274 274 273 272 272 272 272 271 271 271 272 272 272 272 272 271 271 271 270 270 269
282 282 282 282 281 281 281 281 282 282 282 282 282 282 282 283 284 284 283 282 281 280 279 279 279 279 279 278 278 277 277 278 278 277 276 275 275 275 274 274 274 274 273 272 272 271 271 271 271 271 270 270 270 271 271 271 271 270 269 269 268 267
281 280 280 280 280 280 280 280 281 281 281 281 281 281 282 283 283 284 284 283 282 281 280 279 279 278 278 277 278 278 277 277 277 277 276 275 275 274 273 273 273 273 273 272 272 272 272 271 271 270 270 270 270 269 269 270 271 271 270 269 267 266
280 279 279 279 279 279 278 279 280 280 280 281 281 281 282 282 282 282 282 282 281 281 280 279 278 278 277 277 277 277 277 277 276 276 276 276 275 274 273 272 272 272 272 272 272 272 272 272 271 270 270 271 270 269 270 271 271 269 268 268 267 266
279 279 279 278 278 278 277 278 280 280 280 280 281 281 281 281 281 281 281 280 280 279 279 278 277 277 277 277 277 277 276 275 275 275 275 275 275 274 273 272 272 271 271 271 272 272 272 272 271 270 271 271 270 269 270 269 267 265 265 265 265 265

ECMWFFLT1_925_thetae_105.txt.gz
Theta_e
308 311 312 314 314 313 313 312 312 311 312 316 319 322 324 325 326 326 326 327 327 326 326 326 326 325 325 324 324 323 322 321 318 316 316 315 314 313 310 308 307 306 306 305 303 301 299 297 296 295 294 294 293 293 293 292 292 292 292 291 291 291
307 310 312 314 314 313 313 312 311 311 312 315 319 321 322 324 325 325 324 324 324 324 324 324 324 323 323 322 322 321 319 318 316 314 313 312 310 309 307 306 306 305 303 301 299 297 295 295 294 293 293 293 293 292 292 292 291 291 290 290 290 290
305 308 308 311 312 313 313 313 313 312 313 316 318 319 321 322 322 323 323 322 323 323 322 322 321 321 321 320 320 319 316 314 313 312 310 309 307 306 306 305 303 301 299 297 295 294 294 293 293 293 292 292 292 291 291 290 290 290 290 289 289 289
303 304 305 307 309 311 312 313 313 313 314 316 317 318 319 320 320 321 321 321 321 321 320 320 320 319 319 318 316 314 312 312 311 309 307 306 305 304 303 301 299 297 295 294 294 293 293 293 292 292 292 291 291 291 290 290 290 289 289 289 289 288
303 303 304 305 307 309 311 312 313 314 314 315 316 317 317 318 319 319 319 319 318 318 318 318 317 316 316 314 312 311 310 309 307 306 305 304 303 301 299 297 296 294 294 293 293 293 292 292 292 291 291 291 291 290 290 290 289 289 289 288 288 288
301 301 302 303 305 307 309 311 312 312 313 314 314 315 315 316 316 316 317 316 316 316 315 315 314 313 312 311 310 309 308 306 304 304 303 302 299 297 295 294 294 293 293 293 292 292 292 291 291 291 290 290 290 290 290 289 289 288 288 288 287 287
300 300 301 302 303 306 307 309 310 310 311 312 312 313 313 313 314 314 314 314 314 313 312 312 312 311 310 309 308 306 305 304 303 301 300 298 296 295 294 293 293 293 293 292 292 291 291 290 290 290 290 290 290 289 289 289 288 288 287 287 287 287
299 299 300 302 303 305 305 306 308 308 308 309 310 311 311 311 312 312 312 312 311 310 310 310 309 309 308 307 305 304 303 301 300 298 296 295 294 294 293 293 292 292 292 292 291 290 290 290 290 290 290 289 289 289 288 288 288 287 287 287 286 286
300 298 300 301 302 304 304 305 305 306 306 306 307 309 310 310 310 310 310 310 309 308 308 308 307 306 305 304 303 302 300 298 296 295 294 294 293 293 292 292 292 291 291 290 290 290 290 290 290 289 289 289 288 288 287 287 287 287 287 287 286 286
302 298 299 300 301 302 303 303 304 304 305 306 306 307 308 308 308 308 307 307 307 307 306 305 304 303 303 302 300 298 297 295 294 294 293 293 292 292 292 292 291 290 290 290 290 290 289 289 289 288 288 288 287 287 287 287 287 287 286 286 286 286
302 300 299 299 299 300 300 301 302 303 304 305 305 306 306 306 306 305 305 305 305 305 304 302 301 301 300 299 297 295 295 294 293 293 293 292 292 292 291 291 290 290 290 290 289 289 289 288 288 288 287 287 287 287 287 287 286 286 286 286 286 286
302 300 299 298 298 298 299 300 300 301 302 303 303 304 304 304 304 304 303 304 303 302 301 300 300 299 297 296 295 294 293 293 293 292 292 292 291 291 290 290 290 289 289 289 289 289 288 288 287 287 287 287 287 287 286 286 286 286 285 285 285 285
302 299 298 298 298 298 299 299 300 300 301 302 302 303 302 302 302 302 302 301 301 300 299 298 297 296 295 294 294 293 292 292 292 292 291 291 290 290 290 289 289 289 289 289 288 288 287 287 287 286 286 286 286 286 286 286 285 285 285 285 284 284
303 300 299 298 298 298 299 300 300 300 301 301 301 301 301 301 301 300 299 299 298 297 297 296 295 294 294 293 293 292 292 291 291 291 291 290 290 289 289 289 289 289 288 288 288 287 287 287 286 286 286 286 286 286 285 285 285 285 284 284 284 284
303 301 300 299 299 299 300 301 300 300 300 300 300 299 299 299 299 298 297 296 296 295 295 295 294 293 293 292 292 291 291 291 291 291 290 290 289 289 289 289 289 288 288 287 287 287 287 286 286 286 286 285 285 285 284 284 284 284 284 283 283 282
302 301 301 300 299 300 300 301 300 300 300 299 299 299 298 297 297 296 295 295 294 294 294 293 293 293 292 291 291 291 291 291 290 290 289 289 289 289 289 288 288 288 287 287 287 287 286 286 286 286 285 285 284 284 284 284 284 284 283 283 282 282
302 301 301 300 300 300 299 299 300 299 299 298 298 297 297 296 295 294 294 294 293 293 293 293 292 292 291 290 290 290 290 290 290 289 289 289 288 288 288 288 287 287 287 287 287 286 286 286 285 285 285 284 284 284 284 284 284 284 283 282 281 281
303 302 302 301 300 299 299 299 299 298 297 297 296 295 295 294 294 293 293 293 292 292 292 292 291 291 290 290 290 290 289 289 289 289 288 288 288 288 287 287 287 287 286 286 286 286 286 285 285 285 284 284 284 284 284 283 283 283 282 281 281 280
304 303 302 301 300 299 299 298 297 297 296 295 294 294 294 293 293 292 292 291 292 291 291 291 291 290 290 290 289 289 289 289 289 288 288 288 287 287 287 287 287 286 286 286 286 285 285 285 284 284 284 284 284 284 284 283 283 282 281 280 279 279
304 303 302 301 299 298 298 297 297 296 295 294 294 293 292 292 291 291 291 291 291 291 290 290 291 290 290 289 289 289 288 288 288 287 287 287 287 287 286 286 286 286 285 285 285 285 285 284 284 284 283 283 283 283 283 282 281 280 279 278 278 278
304 303 301 300 299 298 297 297 296 296 294 293 292 292 291 291 291 291 290 290 290 290 290 290 290 290 290 289 289 288 288 288 287 287 287 287 287 286 286 286 285 285 285 285 284 284 284 284 284 283 283 283 283 282 282 281 279 278 277 276 276 276
303 301 300 300 299 298 297 297 296 295 294 292 291 291 290 291 291 290 290 290 289 289 289 289 290 290 289 289 288 288 288 287 287 287 286 286 286 286 285 285 285 285 284 284 284 284 283 283 283 283 283 283 283 281 280 279 278 277 276 276 275 275
302 302 301 300 299 297 296 296 295 294 293 291 291 291 291 291 291 290 290 289 289 289 289 289 289 289 289 288 288 287 287 287 286 286 286 286 285 285 285 284 284 284 284 283 283 283 283 283 283 283 283 282 281 280 278 278 277 276 276 276 275 275
300 300 299 298 298 297 296 296 294 293 292 291 291 291 290 290 290 289 289 288 288 288 288 288 288 288 288 287 287 287 286 286 286 286 285 285 285 284 284 284 283 283 283 283 282 282 282 283 283 282 282 281 280 278 277 276 276 276 276 275 275 275
297 297 297 296 297 296 295 295 294 293 292 291 290 290 290 290 289 288 288 287 287 287 288 288 288 287 287 287 287 287 286 285 285 285 285 284 284 284 284 283 283 283 283 282 282 282 282 282 282 281 281 280 278 276 276 276 276 276 276 275 275 275
296 296 295 295 295 295 294 294 294 292 291 290 290 289 289 288 288 287 286 286 287 287 287 287 287 286 286 286 286 286 286 285 285 284 284 283 283 283 283 283 282 282 282 282 282 282 282 281 280 280 280 279 277 275 275 275 275 275 276 275 275 275
295 294 293 293 294 294 293 294 293 292 290 290 289 289 288 287 286 286 286 286 286 286 286 286 285 285 285 285 285 286 286 285 284 284 283 283 283 283 283 282 282 282 283 282 281 281 280 279 279 279 278 276 275 275 275 274 274 275 275 275 274 274
294 293 292 292 292 293 293 293 293 292 290 289 289 288 288 287 286 286 286 285 285 285 285 285 284 284 284 284 284 285 285 285 284 283 283 282 282 282 282 282 282 282 282 281 280 279 278 277 277 276 275 274 274 274 274 274 273 274 274 274 273 274
292 291 290 291 291 291 292 291 291 291 290 289 288 287 287 287 286 285 285 284 284 284 284 284 284 284 284 284 284 284 284 284 283 283 283 282 282 282 282 282 282 281 281 280 279 278 276 276 276 275 274 274 274 274 274 273 273 273 273 273 273 273
290 289 289 289 289 290 290 290 290 290 289 289 288 287 287 286 285 284 284 284 284 283 283 284 284 284 284 283 283 283 283 283 282 282 282 282 282 283 282 282 281 281 280 279 278 277 276 276 276 275 274 274 274 274 274 273 273 273 273 273 273 274
289 289 288 288 288 289 289 289 289 289 289 288 288 287 286 285 284 283 283 283 283 283 282 282 283 283 283 283 282 282 282 282 281 281 281 281 281 282 282 282 281 280 279 278 278 277 277 276 276 275 274 274 274 274 273 273 273 273 272 273 273 274
289 288 288 287 287 288 288 288 287 287 287 287 287 286 285 284 283 282 282 281 282 282 282 282 282 282 282 282 282 281 280 280 279 279 280 280 280 280 281 281 280 279 278 277 277 277 277 276 275 274 273 273 273 273 273 273 273 273 273 273 274 274
287 287 287 287 287 287 286 286 286 286 286 286 286 285 285 284 282 281 281 281 281 281 282 282 282 282 281 281 281 281 280 278 277 277 277 279 279 279 279 278 277 276 276 276 276 276 276 275 273 271 271 272 272 272 273 273 273 273 274 274 274 274
286 286 286 286 286 285 285 285 285 285 285 285 285 284 284 283 282 282 281 281 281 281 281 281 281 282 281 281 280 280 279 278 277 275 275 276 277 277 276 275 275 275 275 276 276 275 274 273 272 270 271 271 272 272 273 273 273 273 273 273 273 273
286 286 285 285 285 285 284 284 284 284 284 284 284 283 283 282 282 282 282 281 281 280 280 281 281 281 281 281 280 280 279 279 278 277 276 275 275 275 274 273 273 274 275 276 275 275 274 274 272 271 271 271 271 272 273 273 272 272 272 273 273 272
285 284 284 285 285 284 284 284 284 284 284 284 283 282 282 282 281 281 282 282 282 282 282 281 281 281 281 281 280 280 279 279 279 279 278 276 274 273 273 273 273 275 275 275 274 275 275 274 272 272 272 271 271 272 272 272 272 272 271 272 272 271
284 284 284 283 283 283 283 283 284 284 284 283 283 282 281 281 280 280 281 281 281 282 283 282 281 281 280 280 280 280 279 279 279 279 279 278 276 275 274 274 274 275 275 274 274 274 275 274 272 271 271 271 271 272 272 272 272 272 272 272 272 271
283 283 282 281 282 282 282 283 283 283 283 282 282 281 280 280 280 279 279 280 280 280 281 281 280 280 280 280 279 279 279 279 279 279 278 278 277 276 275 274 274 274 274 274 274 274 274 274 272 271 271 270 271 271 271 271 272 272 272 272 271 271

ECMWFFLT1_925_thetae_111.txt.gz
Theta_e
301 303 304 305 305 306 307 309 311 313 315 317 319 322 323 324 324 325 325 326 327 328 329 329 330 330 330 330 330 330 330 330 328 328 328 326 325 324 323 323 322 321 320 319 316 311 307 304 301 297 295 294 294 294 293 293 293 293 292 291 290 290
301 306 307 307 307 307 308 309 310 311 313 315 317 319 321 322 323 324 324 325 325 326 328 328 328 328 329 329 329 330 330 329 328 328 327 325 324 323 322 322 321 320 319 315 311 307 304 300 296 294 294 294 294 293 293 293 292 292 291 290 290 289
302 307 308 308 309 308 309 309 309 310 311 312 315 316 318 320 322 322 323 324 324 325 326 327 327 327 328 328 329 329 329 328 327 327 326 324 323 322 322 321 319 318 316 311 307 304 301 296 294 293 293 293 293 293 293 292 291 291 291 289 289 288
302 305 306 308 307 307 309 309 309 309 309 310 311 313 315 317 319 320 321 322 323 324 326 327 327 327 327 327 327 327 328 327 327 326 324 323 321 321 320 320 318 316 312 307 305 302 297 294 293 293 293 293 293 292 292 291 291 291 290 289 289 288
302 305 305 307 307 308 309 309 308 309 308 308 309 310 312 314 315 317 319 321 322 323 325 326 326 326 326 326 325 326 327 327 326 325 323 322 321 320 319 319 316 312 308 305 302 298 294 293 293 292 292 293 293 292 291 290 290 290 289 289 288 288
301 301 302 305 307 308 310 309 309 308 308 307 308 309 310 311 313 315 316 319 321 322 324 324 325 325 324 324 325 325 325 325 325 323 321 321 321 319 318 315 312 308 305 303 299 294 292 292 292 292 292 292 292 292 291 290 289 289 288 288 288 288
301 299 300 302 304 307 309 309 309 309 308 308 308 309 310 311 313 315 316 318 320 321 322 323 323 323 323 323 324 323 322 322 322 322 320 321 320 318 315 311 307 305 302 298 295 293 292 292 292 292 291 291 291 291 290 289 288 288 288 288 288 287
301 298 299 301 303 306 308 309 310 310 309 309 309 310 311 312 313 315 316 318 319 320 320 320 321 321 322 322 321 321 320 320 321 321 319 319 318 315 312 307 304 301 298 295 293 292 292 292 292 292 291 291 290 289 289 289 288 288 288 288 287 287
303 299 298 300 302 304 306 308 309 310 310 310 309 310 311 312 313 314 315 316 318 318 318 319 319 320 321 321 320 319 319 320 320 319 318 316 315 312 307 303 300 298 295 293 292 292 292 291 291 291 291 290 289 289 289 288 288 288 287 287 287 287
305 300 297 299 301 302 304 306 307 309 310 310 310 310 311 312 312 313 314 314 316 318 318 318 318 318 320 321 320 319 318 318 317 316 315 313 311 307 303 300 297 294 293 292 292 291 291 291 290 290 290 289 289 288 288 288 288 287 287 287 287 286
306 301 298 298 299 300 302 304 305 307 308 309 310 310 311 311 311 312 312 312 313 316 316 315 315 316 317 318 317 317 317 316 314 313 311 309 306 303 300 297 295 292 292 291 291 290 290 290 290 289 289 289 288 288 288 287 287 287 287 287 286 286
304 301 298 297 298 299 300 302 304 306 307 308 309 310 310 310 310 310 310 310 311 312 313 313 313 314 314 315 315 314 314 313 311 309 307 304 302 299 297 294 293 292 291 290 290 289 289 289 289 289 288 288 288 288 288 287 287 287 287 286 286 286
304 301 299 298 298 298 299 301 303 305 307 307 308 310 311 310 309 310 310 310 311 312 312 312 312 313 313 312 312 311 310 309 307 305 302 300 298 296 294 292 291 291 290 290 289 289 289 288 288 288 288 287 287 287 287 287 287 286 286 286 286 286
307 303 301 299 299 299 299 300 302 303 305 307 308 309 309 309 309 310 311 310 311 312 311 311 311 310 310 309 308 307 307 305 303 301 299 297 295 293 292 291 290 290 289 289 289 289 288 288 288 287 287 287 287 287 287 287 287 286 286 286 286 286
306 303 301 300 300 301 301 301 302 303 305 307 308 307 307 307 307 308 309 309 309 310 309 309 308 307 306 306 306 304 303 301 299 297 296 294 293 292 290 290 289 289 289 289 288 288 288 288 287 287 287 287 287 287 286 286 287 286 286 286 285 285
303 302 302 302 302 302 301 302 302 304 305 306 306 306 306 305 305 305 306 306 307 307 307 306 305 305 304 303 303 301 299 298 296 295 293 292 291 290 290 289 289 288 288 288 288 288 287 287 287 287 287 286 286 286 286 286 286 286 286 285 285 285
301 302 302 302 303 302 301 301 301 302 303 304 304 304 304 303 303 303 304 304 304 305 304 304 303 302 302 301 300 298 297 295 294 292 291 291 290 290 289 289 288 288 288 287 287 287 287 287 287 286 286 286 286 286 286 286 286 286 285 285 285 285
303 304 304 303 303 302 301 301 301 301 301 301 302 302 302 302 301 301 302 302 303 303 302 302 301 301 300 299 297 296 294 293 292 291 290 289 289 289 288 288 288 288 287 287 287 287 287 286 286 286 286 286 286 286 285 285 285 285 285 285 285 284
305 306 304 304 303 302 302 300 300 300 299 299 299 300 300 300 300 300 301 301 302 301 300 300 300 300 299 297 295 294 293 291 290 289 289 289 288 288 288 287 287 287 287 286 286 287 287 286 286 286 286 285 285 285 285 285 285 285 285 285 284 284
305 305 304 303 303 302 302 300 299 299 298 298 298 298 298 298 298 299 300 300 301 300 299 299 299 299 297 296 294 293 291 290 289 289 288 288 288 287 287 287 286 286 286 286 286 286 286 286 286 285 285 285 285 285 285 285 285 285 285 284 284 283
305 305 303 302 302 302 301 300 299 298 297 296 296 296 296 296 297 299 300 300 300 300 299 298 298 297 297 295 293 292 290 289 289 288 288 287 287 287 286 286 286 285 285 285 285 285 286 286 285 285 285 285 285 284 284 284 284 284 284 284 284 284
303 303 303 303 303 302 300 300 298 297 297 296 295 295 295 297 299 300 300 300 299 299 298 297 296 296 295 293 291 290 289 288 288 287 287 286 286 286 286 285 285 285 285 284 285 285 285 285 285 285 285 285 284 284 284 284 284 284 284 284 284 283
303 304 304 303 303 301 300 300 298 296 296 295 294 295 296 298 298 298 298 298 298 297 296 296 295 294 293 291 290 289 288 288 287 287 286 286 286 285 285 284 284 284 284 284 284 284 284 284 285 284 284 284 284 284 284 284 283 284 284 284 284 283
301 302 302 301 301 300 299 299 297 296 296 295 294 295 296 296 296 296 295 295 295 295 294 293 292 292 291 289 289 288 287 287 286 286 286 285 285 285 284 284 283 283 283 282 282 283 283 283 284 284 283 283 283 283 283 283 283 283 284 284 283 282
299 299 300 300 300 300 299 298 297 296 295 295 294 295 295 295 295 295 294 294 293 293 292 291 290 290 289 288 288 287 287 286 285 285 285 285 284 284 283 283 283 282 282 281 281 282 282 282 283 283 283 282 282 282 282 282 282 283 283 283 283 282
299 298 299 299 299 299 299 299 297 296 295 295 295 295 295 295 294 294 293 292 292 291 290 290 289 289 288 288 287 287 286 285 285 284 284 284 284 284 283 282 282 282 281 281 281 281 281 282 282 282 282 282 282 281 281 281 282 283 283 282 282 281
299 298 297 297 298 298 298 298 298 296 295 295 295 295 295 295 294 293 293 292 291 290 290 289 288 288 287 287 286 286 286 285 284 284 283 283 283 283 282 281 281 281 282 282 281 281 281 281 281 281 281 281 281 281 281 281 281 282 282 282 281 280
297 297 296 295 296 297 297 297 297 297 296 295 295 294 294 294 293 292 291 291 290 289 289 288 287 287 286 286 286 286 286 285 285 284 283 283 282 283 282 281 281 281 281 282 282 282 282 281 281 281 281 281 281 280 281 281 281 281 281 280 279 278
295 294 294 294 295 296 296 296 296 296 296 295 294 294 293 293 293 291 290 289 289 288 287 287 286 286 285 285 285 284 285 285 285 284 283 282 282 281 281 281 280 280 281 282 282 282 282 282 281 281 282 282 281 280 281 281 281 280 280 279 278 278
294 293 293 294 294 294 294 295 294 294 295 294 294 294 293 292 292 291 290 289 288 287 286 286 285 285 284 284 284 283 284 283 283 283 283 284 283 283 282 282 282 282 283 283 283 282 281 281 282 283 284 283 282 282 282 282 281 280 280 279 279 277
294 294 293 293 293 293 293 293 293 293 294 294 294 293 292 291 290 290 289 288 287 286 285 284 284 284 283 283 282 282 283 283 283 283 283 284 284 284 284 284 284 285 285 285 284 284 282 283 285 287 286 284 283 283 283 282 281 280 280 280 279 277
293 292 292 292 292 291 292 292 293 293 292 293 293 292 292 291 289 288 287 286 285 285 284 283 283 283 283 282 282 281 281 281 282 282 282 283 283 283 284 284 285 286 286 285 285 285 285 287 289 288 285 282 282 282 281 281 280 279 280 280 278 276
291 291 292 292 290 290 291 291 292 292 291 291 292 291 291 291 289 287 286 285 285 285 284 283 282 282 282 281 281 280 280 280 280 280 281 282 282 282 283 283 284 285 285 285 285 284 285 286 286 284 283 281 280 280 279 278 277 278 279 279 277 274
291 292 292 291 290 289 290 290 290 291 290 290 290 290 290 290 289 288 286 285 285 284 283 282 282 281 280 280 279 279 279 279 279 279 279 280 281 281 282 282 283 283 283 283 283 283 283 282 282 281 281 280 279 278 278 277 276 277 278 278 275 274
291 291 291 290 290 289 289 289 289 289 289 289 289 289 289 289 288 288 287 286 284 283 282 281 281 280 280 279 279 279 279 279 279 279 279 279 279 280 280 281 281 282 282 281 281 281 281 280 280 280 279 279 278 277 277 276 276 276 277 276 275 274
290 289 289 289 289 288 288 288 288 288 288 288 288 288 288 288 287 287 287 286 285 283 282 281 280 280 280 279 279 279 278 279 279 279 279 279 279 278 279 279 280 280 280 280 280 280 279 279 279 279 278 278 277 276 276 275 275 274 274 275 275 274
289 288 288 288 287 287 287 287 287 287 287 287 287 287 286 286 286 285 285 285 284 284 283 282 281 280 279 279 278 278 278 278 279 279 279 279 279 279 279 279 279 279 279 279 279 279 279 278 278 278 278 277 276 276 275 274 274 273 273 274 274 274
287 286 286 286 286 286 286 286 286 286 286 286 286 286 285 285 285 284 283 283 283 282 282 282 281 280 279 279 279 278 278 278 278 278 279 279 279 279 279 278 278 278 278 278 278 278 278 277 277 277 277 276 276 275 274 274 274 274 274 274 274 274

ECMWFFLT1_925_thetae_114.txt.gz
Theta_e
309 308 308 306 305 305 305 305 306 306 308 311 316 319 321 322 323 323 324 324 325 326 326 326 327 327 327 328 327 327 327 328 328 329 329 329 329 328 326 325 325 324 322 321 320 320 319 318 317 315 311 309 308 304 298 294 294 293 293 292 291 291
307 306 306 305 305 305 304 305 305 306 307 309 313 316 318 320 321 321 322 323 324 325 325 325 326 326 327 327 327 327 327 328 329 329 329 329 329 327 325 325 324 323 321 320 320 320 319 318 316 311 308 305 302 298 294 293 293 292 292 291 291 291
306 305 304 304 305 305 305 305 305 306 307 309 311 314 316 318 319 320 321 322 323 324 324 325 325 325 326 326 326 327 327 328 329 329 329 329 329 327 325 324 323 322 321 320 320 319 318 317 313 307 303 301 297 294 293 293 292 291 291 291 290 290
308 306 304 303 304 305 305 306 306 307 308 309 311 313 314 316 317 319 320 321 322 323 323 324 324 325 325 326 326 326 327 328 328 329 329 328 328 326 325 324 323 322 322 320 319 318 318 314 308 302 299 296 294 294 293 292 291 291 291 290 290 289
307 305 304 303 304 306 307 307 307 308 308 309 311 312 314 315 315 317 319 320 321 322 323 323 324 324 324 325 325 325 326 327 328 328 328 328 328 326 324 324 322 321 321 319 318 317 315 310 303 298 295 294 294 293 292 291 291 290 291 290 290 289
304 303 304 304 305 306 308 308 308 309 308 308 309 311 312 313 314 315 317 318 320 321 322 322 323 324 324 324 325 325 326 327 328 327 327 327 326 325 324 321 320 321 319 318 318 315 310 304 298 295 294 293 293 293 292 291 290 290 290 290 289 289
304 305 305 305 306 306 307 308 309 309 309 308 308 309 310 310 311 312 314 316 318 319 320 321 322 323 323 324 324 325 325 326 326 326 325 325 324 324 322 319 318 319 318 318 317 312 305 299 295 293 293 293 292 292 291 290 290 290 289 289 289 288
305 306 305 305 305 306 307 308 308 308 309 308 308 308 308 308 309 310 311 314 316 318 319 320 321 322 322 323 323 324 324 324 323 323 323 323 323 322 320 318 318 317 317 317 314 308 301 296 293 293 293 292 291 291 290 289 289 289 289 289 288 288
306 306 306 306 305 305 306 307 307 308 308 308 308 307 307 308 308 309 311 312 314 316 318 319 320 320 321 321 322 322 322 321 321 320 319 321 323 321 319 318 316 315 316 316 311 305 298 294 292 293 292 291 290 290 289 289 289 288 288 288 287 287
308 306 307 306 304 304 304 305 306 307 308 308 309 308 307 308 309 310 311 312 313 315 316 318 318 319 319 319 320 320 319 318 318 317 317 319 321 321 319 317 315 315 315 312 307 301 295 292 292 292 291 290 289 289 289 289 289 289 288 287 287 287
310 308 307 305 304 303 303 303 305 306 307 308 309 309 308 308 309 310 311 312 313 314 315 316 317 317 317 317 317 316 316 315 315 315 315 316 318 319 317 315 315 315 312 307 302 297 292 292 292 291 290 290 289 289 289 289 289 288 288 287 287 287
309 308 308 306 304 303 303 303 303 304 306 308 309 309 309 309 309 310 310 311 312 313 313 314 315 314 314 314 313 313 313 314 313 313 313 312 315 317 315 313 313 312 308 303 298 293 291 291 291 290 290 290 289 289 289 289 288 288 288 288 287 287
308 307 308 306 305 303 303 303 303 303 305 307 309 309 309 309 309 309 309 310 310 311 311 311 311 311 311 311 310 310 313 312 310 310 310 310 313 314 312 311 310 306 303 299 294 291 290 290 290 289 289 289 289 289 289 289 288 287 287 287 287 287
313 311 308 306 305 303 303 303 303 303 304 306 308 309 309 309 309 308 308 308 308 308 308 308 309 308 308 308 307 307 311 310 308 308 309 310 311 311 309 307 305 301 298 294 291 290 290 289 289 289 288 288 288 289 289 288 288 287 287 287 286 286
315 312 309 306 305 304 303 304 304 303 304 306 308 309 309 309 308 306 306 306 306 307 306 306 306 306 306 306 306 306 308 309 308 308 309 309 309 308 306 303 300 297 294 291 290 290 289 289 288 288 288 288 288 288 288 288 288 287 287 286 286 286
311 308 307 306 305 305 304 304 304 304 304 305 306 307 308 307 307 305 305 305 305 305 305 304 304 305 305 305 305 305 306 307 307 307 308 308 306 304 302 299 296 293 291 290 289 289 288 288 288 287 287 287 287 287 287 287 287 287 287 286 286 286
309 307 306 305 305 304 303 303 302 302 302 303 304 305 306 306 305 305 304 305 304 304 305 304 304 304 305 304 304 305 305 306 306 306 306 305 304 301 298 296 293 291 290 289 289 288 288 287 287 287 287 287 287 287 286 286 286 286 286 286 285 285
307 307 306 305 305 304 303 302 301 301 300 302 303 304 304 304 304 303 303 304 304 304 305 305 305 305 305 304 304 304 304 304 303 303 303 301 299 297 295 293 291 290 289 288 288 288 287 287 287 287 286 286 286 286 286 286 286 286 286 285 285 285
305 305 305 305 304 304 303 302 301 300 300 299 300 301 302 302 302 302 302 302 303 304 305 306 306 305 305 304 304 303 303 302 301 301 300 298 295 292 291 290 289 289 288 288 288 288 287 287 286 286 286 286 286 286 286 286 286 285 285 285 285 285
305 305 305 304 304 304 303 302 300 300 299 298 298 299 299 300 301 301 301 301 302 304 306 306 306 305 304 303 303 302 301 300 299 298 297 295 293 290 289 289 288 288 288 288 288 288 288 287 286 285 286 286 286 286 286 286 285 285 285 285 285 284
304 304 304 304 303 303 303 301 300 299 298 297 297 297 297 299 300 301 300 301 302 303 304 304 304 303 303 301 300 300 298 297 296 295 293 292 291 289 288 287 287 287 287 287 287 287 287 287 286 285 285 286 286 286 286 286 285 285 285 285 284 284
303 303 303 304 304 303 302 301 300 299 298 297 296 297 297 298 300 300 299 300 301 301 302 302 301 301 301 300 298 297 296 294 293 291 290 289 288 287 287 286 287 287 287 287 287 287 287 287 286 285 285 285 285 285 285 285 285 285 285 285 284 284
302 303 303 304 304 302 301 300 299 298 297 297 296 296 297 298 298 298 298 297 297 298 299 299 300 300 299 299 297 295 293 292 291 290 288 287 287 286 286 285 286 286 286 286 286 286 286 287 286 285 285 285 285 285 285 285 285 285 285 285 284 284
301 301 302 302 302 301 300 299 298 297 297 296 296 296 296 297 297 297 296 295 295 296 297 297 297 297 297 296 295 293 291 290 289 288 287 286 286 285 285 285 285 285 285 285 285 285 285 286 286 285 285 285 285 285 285 285 285 285 285 285 284 284
300 300 300 301 300 301 300 299 298 297 296 296 296 296 297 297 297 296 295 295 295 295 295 295 295 294 294 293 292 292 290 288 287 286 285 285 285 284 283 283 284 284 284 284 284 284 285 285 285 285 284 284 284 284 284 284 284 284 284 284 285 285
298 298 299 299 299 299 300 299 298 296 296 297 297 296 296 296 296 296 295 295 295 294 294 294 293 292 292 292 291 290 288 287 286 285 284 284 284 283 282 282 283 283 283 283 283 283 284 284 284 284 284 284 283 284 283 283 283 283 283 284 284 285
298 297 297 297 298 299 299 299 299 297 296 296 296 296 296 295 295 295 295 294 294 293 293 292 291 291 291 291 290 289 288 286 285 284 283 283 283 282 282 281 281 282 282 282 282 283 283 283 283 283 283 283 283 283 283 283 283 283 283 284 284 284
297 296 295 295 296 298 298 298 298 298 297 297 296 296 295 296 295 294 294 293 293 292 292 291 290 289 289 289 289 288 288 287 285 284 283 282 282 282 281 281 281 281 281 282 282 282 282 282 282 282 283 282 282 282 282 282 282 283 283 283 283 282
295 294 294 294 294 295 296 296 296 297 297 297 296 296 295 295 295 294 293 292 292 291 291 290 289 288 288 287 287 286 286 286 285 283 282 282 281 281 281 281 280 280 281 281 281 281 281 282 282 282 282 282 282 282 282 282 282 282 283 282 281 281
294 293 292 293 293 294 294 294 294 295 296 296 296 295 295 294 294 293 292 291 291 290 289 289 289 288 287 286 286 285 285 284 284 284 283 283 283 283 282 281 281 282 282 282 281 280 280 280 281 282 283 283 283 283 282 281 281 282 283 282 281 281
294 293 293 292 292 293 293 293 294 294 294 295 295 295 294 294 293 292 291 290 289 289 288 287 287 287 286 285 285 284 284 284 284 284 284 284 284 284 284 283 283 284 285 284 283 283 281 280 283 285 285 284 284 284 285 286 285 284 283 283 282 281
294 293 293 292 292 292 292 293 293 293 293 294 294 294 294 293 292 290 290 289 288 287 287 286 285 285 285 285 284 283 283 283 283 283 283 283 283 283 283 283 284 285 285 284 285 285 285 286 287 286 285 284 283 284 286 287 286 284 284 282 281 280
293 293 292 291 291 292 292 292 292 292 292 292 292 292 293 292 291 289 288 288 287 287 286 285 285 284 284 283 283 282 281 281 282 281 282 282 282 281 282 282 283 283 283 283 284 284 284 285 286 285 284 283 283 284 284 284 283 282 282 280 279 278
291 292 291 290 290 292 292 292 292 291 291 291 291 291 291 291 291 290 288 287 287 286 286 285 284 284 283 282 282 281 281 280 280 280 280 280 280 281 281 281 281 281 282 282 282 282 283 283 283 283 283 283 282 283 283 282 281 280 279 278 278 278
290 291 290 289 290 292 292 291 290 290 290 290 290 290 290 290 290 290 289 288 287 286 284 284 283 283 282 282 281 281 280 280 280 280 280 280 279 280 280 280 280 281 280 281 281 281 282 282 282 282 282 282 281 281 281 280 279 278 278 277 277 276
288 288 288 289 290 291 290 289 289 289 289 289 289 289 289 289 289 289 289 288 288 286 285 284 283 282 282 281 281 281 280 280 280 280 280 280 279 279 279 279 280 280 280 280 281 281 281 281 281 281 281 281 281 280 279 279 278 278 277 277 277 276
288 288 288 289 289 289 288 288 288 288 288 288 288 288 288 288 288 287 287 287 287 286 285 284 284 283 282 281 281 280 280 280 280 280 280 280 280 280 279 279 279 279 279 280 280 280 280 280 280 280 280 280 280 280 279 279 278 278 278 277 276 276
288 288 288 288 288 287 287 287 287 287 287 287 287 287 287 286 286 286 285 285 285 285 284 284 283 283 282 281 281 280 279 279 279 279 279 280 280 280 280 279 279 279 279 279 279 279 279 279 279 279 280 280 280 280 279 279 278 278 278 277 276 276

ECMWFFLT1_925_thetae_117.txt.gz
Theta_e
315 315 314 313 311 310 309 309 309 309 310 313 316 319 322 324 326 327 328 328 328 328 328 328 328 329 329 329 330 330 330 329 329 329 330 329 328 329 330 330 329 327 326 327 325 323 321 320 319 318 318 316 314 312 309 307 307 306 304 302 297 294
315 315 315 314 313 311 311 310 310 310 311 313 315 317 319 322 324 325 326 327 327 327 327 327 328 328 328 329 329 330 329 328 328 329 329 328 327 328 329 329 328 327 326 325 324 322 320 319 318 318 317 314 312 310 308 307 306 304 300 297 294 293
315 314 312 311 310 309 309 309 310 310 311 311 313 315 317 320 322 323 325 326 326 326 326 326 327 327 328 328 329 329 329 328 328 328 328 327 327 327 328 328 328 327 326 325 323 321 321 319 317 317 316 313 311 308 308 307 304 299 296 294 293 293
313 313 310 308 308 308 308 308 309 309 310 310 311 312 314 317 320 322 323 324 324 324 324 324 325 326 327 328 328 329 328 328 328 327 326 326 326 327 328 328 328 326 326 325 323 321 320 319 318 317 316 314 311 308 307 305 299 295 294 293 293 292
313 312 310 308 308 308 309 308 309 310 310 310 311 312 313 314 317 319 319 320 321 321 322 323 324 325 326 326 327 328 328 327 327 326 326 326 326 327 328 328 327 325 325 324 322 321 319 318 319 318 316 315 311 309 306 301 295 293 294 293 292 291
311 310 309 309 308 309 309 309 309 310 311 311 311 312 313 314 315 316 316 318 319 320 321 322 324 325 325 326 326 327 327 327 326 326 325 326 326 326 327 326 325 325 324 322 321 319 318 318 318 317 316 314 311 308 303 296 293 293 293 292 291 291
310 310 311 311 310 309 309 310 310 311 311 311 311 312 313 313 314 314 315 316 318 319 321 322 323 323 324 324 325 325 326 326 326 325 325 325 326 326 325 324 323 323 323 321 320 319 318 318 318 316 316 313 308 304 298 293 292 293 292 292 291 290
311 311 312 312 311 310 310 310 311 311 311 311 311 311 311 311 312 312 313 314 316 318 319 320 321 322 323 323 323 324 324 324 325 325 324 325 325 324 323 322 321 322 322 321 320 319 319 319 317 316 316 311 304 298 294 292 292 292 291 291 290 290
311 311 312 312 311 311 310 310 311 310 310 310 310 309 309 309 309 309 310 311 313 316 318 319 320 321 321 322 322 323 323 323 324 324 324 324 323 323 323 321 319 321 322 321 320 319 319 318 317 316 313 306 299 294 292 292 292 291 291 290 289 289
312 312 312 312 311 311 310 310 310 309 309 309 309 308 307 307 307 307 307 308 310 313 315 317 318 319 320 320 321 321 321 321 322 322 322 322 321 321 322 321 320 319 320 320 318 317 317 317 316 314 308 300 295 292 292 292 291 291 290 289 289 288
315 313 313 313 311 311 310 309 308 308 307 308 307 307 307 307 306 306 307 308 308 310 312 314 315 317 317 318 318 318 319 319 319 319 319 319 318 318 318 317 317 318 318 317 316 316 315 315 315 312 304 296 292 292 292 291 291 290 289 289 288 288
316 314 314 313 312 311 310 309 308 307 307 306 306 306 308 308 307 306 307 308 308 309 310 311 313 315 315 315 316 316 316 316 316 316 316 315 314 314 313 312 312 315 317 317 316 316 313 311 311 308 300 294 292 292 291 291 290 289 289 288 288 287
316 315 315 314 313 311 310 310 309 308 307 306 305 306 308 308 307 307 307 308 309 309 310 311 312 313 313 314 314 314 314 314 314 313 313 312 311 311 311 310 310 313 316 316 316 316 312 309 307 302 296 292 292 292 291 290 289 289 288 288 288 287
319 318 317 314 313 312 310 310 309 308 307 306 305 305 307 308 308 308 308 308 309 309 310 310 311 311 311 312 313 313 313 312 312 311 310 310 310 310 309 309 309 311 313 315 316 315 311 306 302 297 293 292 291 291 291 290 289 289 288 288 287 287
321 319 316 314 312 311 310 309 309 308 308 307 305 304 307 309 308 308 308 308 308 308 308 309 309 308 309 310 311 311 310 310 309 309 309 309 309 309 308 308 308 310 312 315 315 312 308 303 297 293 292 291 290 290 290 290 289 288 288 287 287 287
318 316 314 312 311 310 309 308 308 308 308 307 304 304 306 308 308 308 308 307 307 307 307 307 307 307 307 307 308 308 308 308 308 308 308 308 307 306 307 307 308 309 312 313 311 308 303 299 294 292 291 290 290 289 289 289 288 288 287 287 287 287
316 314 313 311 310 309 308 307 307 306 306 305 304 304 306 307 307 307 307 307 306 306 306 306 306 306 306 305 305 305 306 306 306 305 305 306 307 306 307 307 307 309 309 308 305 302 298 295 292 291 290 290 289 288 288 288 288 287 287 287 287 286
314 313 312 310 309 308 307 306 305 305 305 304 303 303 304 306 306 306 306 306 306 305 306 306 306 305 305 304 303 303 304 304 303 303 303 303 304 304 304 304 306 307 306 302 299 298 295 291 290 290 289 289 288 288 288 287 287 287 287 286 286 286
312 311 310 309 308 307 306 305 304 304 304 303 302 302 302 303 304 305 305 305 305 306 306 306 305 305 304 303 302 302 302 302 302 302 301 302 302 302 302 303 304 303 302 299 296 294 292 290 289 289 289 288 288 287 287 287 287 286 286 286 286 286
309 308 307 307 307 306 305 305 304 303 302 301 301 300 301 302 303 303 304 304 305 305 305 305 304 304 304 303 303 303 302 301 301 301 301 302 303 303 303 303 302 299 298 297 295 293 291 290 289 288 288 287 287 287 287 286 286 286 286 285 285 285
307 306 305 306 305 305 305 304 303 302 302 301 300 300 300 301 302 302 303 303 303 303 304 304 304 303 303 303 303 303 302 301 301 301 300 300 302 302 302 301 299 296 294 293 292 290 290 289 288 287 287 287 287 286 286 286 286 285 285 285 285 285
305 304 304 305 305 305 304 304 303 302 301 301 300 299 300 300 301 302 302 302 302 301 302 303 303 303 303 304 303 302 301 301 300 299 298 298 298 299 298 296 295 293 291 289 289 288 288 289 288 287 286 286 286 286 286 286 286 286 285 285 285 285
304 304 305 305 305 304 303 303 302 301 300 300 299 299 299 299 300 301 301 301 301 301 300 301 302 302 303 304 304 302 301 300 299 299 298 296 295 294 293 291 291 290 289 288 288 287 287 288 287 287 286 286 286 286 286 286 286 286 286 285 285 285
303 304 304 304 303 303 302 301 301 300 299 299 299 299 299 299 299 300 300 301 300 299 299 299 300 300 300 301 301 300 298 297 296 296 295 293 292 291 290 289 288 288 288 287 287 287 287 287 287 286 285 285 285 285 285 286 286 286 286 286 285 285
302 302 302 301 301 301 301 300 300 299 299 299 298 298 298 298 298 299 299 299 299 298 298 298 297 297 297 297 297 297 295 294 293 293 291 290 290 289 288 287 287 287 287 287 287 287 286 286 286 285 285 285 285 285 285 285 285 285 285 285 285 286
302 300 300 299 299 300 300 300 300 298 298 298 298 298 298 298 298 298 298 298 298 297 297 297 297 297 297 296 296 295 294 292 292 291 290 289 289 288 286 286 286 286 286 286 286 286 286 286 285 285 285 285 285 285 285 285 284 285 285 285 285 285
300 299 298 297 297 298 299 299 299 298 297 297 298 298 298 297 297 297 297 297 296 296 296 296 296 296 296 296 296 295 294 292 291 289 288 288 287 286 286 285 285 285 285 285 285 285 285 286 285 285 285 284 284 284 284 284 284 284 284 284 284 284
298 297 297 296 296 297 297 298 298 298 298 298 298 298 297 297 297 296 296 295 295 294 294 294 293 293 294 294 294 293 293 292 291 288 287 287 286 286 285 284 284 284 284 285 285 285 285 285 285 285 285 284 284 283 282 282 283 283 283 283 283 284
297 296 295 295 294 295 296 296 297 298 298 298 298 297 297 296 296 295 294 293 293 293 293 293 292 291 291 291 291 291 291 291 290 288 287 286 285 284 284 284 284 284 284 284 284 284 284 284 284 284 284 284 283 282 282 282 282 283 283 283 282 282
296 295 294 294 294 294 295 296 296 297 297 297 297 296 296 295 295 294 293 292 292 292 291 291 291 290 289 289 289 289 288 289 288 287 287 287 286 285 284 284 284 284 284 284 284 284 284 283 283 284 285 284 283 283 283 283 282 282 282 282 282 281
295 295 294 293 293 294 295 295 295 296 296 296 296 295 295 294 294 293 292 291 291 290 290 289 289 289 288 288 288 287 287 287 287 287 287 287 287 286 285 285 284 284 284 284 284 284 284 283 284 285 285 284 284 284 283 283 283 283 282 282 282 281
294 294 293 291 292 293 294 294 295 295 295 295 295 294 294 293 292 291 290 289 289 289 288 288 288 287 287 287 286 286 285 286 286 286 285 285 285 285 285 284 284 284 284 284 284 284 285 284 285 285 284 284 284 284 284 284 283 283 282 282 281 281
292 292 291 290 291 293 293 294 294 294 294 294 294 294 294 293 291 289 288 288 288 288 287 287 286 286 286 286 286 285 285 284 284 284 284 284 284 284 284 284 284 283 283 283 283 284 284 284 284 284 284 284 284 283 283 283 283 282 282 282 281 282
291 291 290 290 291 292 292 293 293 293 293 293 293 293 293 293 291 290 288 287 287 287 287 286 286 285 285 285 285 284 284 284 283 283 283 283 283 283 283 283 283 283 283 283 283 283 283 283 283 283 283 283 283 283 283 283 282 282 282 281 282 282
290 290 289 290 291 292 292 292 292 292 292 293 292 292 292 292 291 290 289 287 287 286 285 285 285 285 284 284 284 284 283 283 283 283 283 282 282 282 282 282 282 282 282 282 282 282 283 283 283 283 283 283 283 283 282 282 282 282 281 281 281 280
290 290 290 290 291 291 291 291 291 291 292 292 291 291 291 290 290 290 289 289 288 287 285 284 284 284 284 284 283 283 283 283 283 283 283 283 282 281 281 281 281 282 282 282 282 282 282 282 282 282 282 282 281 281 282 282 282 281 281 281 280 280
290 291 290 290 290 289 290 290 290 290 291 291 290 290 290 289 289 289 289 288 288 287 285 284 284 284 283 283 283 283 282 282 283 283 283 283 282 281 281 281 281 281 281 281 281 281 281 281 281 281 281 281 280 280 281 281 281 281 281 280 280 279
289 289 288 288 288 288 289 289 289 290 290 289 289 289 288 288 288 287 287 287 286 285 285 284 284 283 283 283 282 282 282 282 282 282 282 283 283 282 282 282 281 281 281 280 280 280 280 280 280 280 280 280 280 280 281 281 281 280 280 280 280 279

ECMWFFLT1_925_thetae_123.txt.gz
Theta_e
307 310 313 312 314 314 314 315 317 322 325 326 327 327 328 328 329 329 329 329 330 330 330 330 331 331 330 331 330 330 329 329 329 329 329 329 329 329 329 329 329 329 329 329 329 330 330 330 330 329 329 328 327 327 326 325 325 323 322 322 322 322
308 309 312 311 312 312 312 313 313 314 318 321 324 326 326 327 328 328 329 329 329 329 330 330 330 330 330 331 330 330 329 329 329 329 329 329 329 329 329 329 329 329 329 329 329 330 330 330 329 329 329 328 326 326 325 325 324 322 322 321 320 320
310 312 313 312 313 312 311 311 311 311 312 314 316 319 322 324 325 326 327 328 329 329 329 329 330 330 330 330 330 330 330 330 329 329 329 329 329 329 329 329 329 329 329 329 329 329 330 329 328 328 328 327 326 325 325 324 323 322 321 321 319 318
311 313 313 313 313 312 311 311 310 311 310 311 311 313 315 318 319 321 323 325 327 327 328 328 329 329 329 330 330 330 330 329 329 329 329 329 329 329 329 329 330 329 329 329 328 328 329 328 327 327 327 326 325 325 324 323 322 321 320 319 317 316
308 312 311 312 312 311 312 311 311 311 310 310 310 310 311 312 314 316 317 320 322 324 325 327 327 328 328 329 329 329 329 329 329 329 328 329 329 329 329 329 329 329 329 329 328 327 328 327 326 326 326 325 325 324 323 322 321 320 319 318 317 316
309 312 309 310 311 310 310 309 309 310 309 310 310 310 310 310 311 312 313 316 318 319 322 324 325 327 327 327 328 328 328 328 328 328 328 329 329 329 329 329 329 329 329 328 328 327 327 326 325 324 325 325 325 324 323 322 320 318 318 318 318 317
316 311 306 309 310 308 309 308 308 309 308 309 309 309 310 310 310 311 311 313 316 318 321 322 324 326 326 326 327 327 327 327 328 328 328 328 329 328 329 329 329 329 328 328 328 327 326 325 323 323 323 323 323 323 323 321 320 318 318 318 317 316
323 312 305 307 308 308 309 308 308 309 308 308 308 308 309 309 309 310 310 312 314 317 320 322 323 325 325 326 326 326 327 327 327 328 328 328 329 329 329 328 328 328 328 328 327 327 326 324 322 322 322 323 322 322 321 320 318 317 317 316 315 314
331 320 306 305 309 309 309 309 309 309 309 309 309 310 310 310 309 310 310 311 312 314 317 319 321 322 323 325 325 325 326 326 326 327 327 328 328 328 328 328 328 328 327 327 327 327 325 324 322 320 321 322 321 320 320 319 317 315 314 315 314 312
336 327 307 304 310 310 309 311 309 309 310 309 310 311 310 311 311 311 311 311 312 313 314 316 318 319 320 321 322 323 323 324 324 325 325 327 327 328 328 328 327 327 327 327 326 325 325 324 321 320 320 318 317 318 319 317 315 314 314 313 311 308
340 334 310 303 309 310 310 311 310 310 310 310 311 311 310 311 311 311 312 311 311 311 311 312 313 314 315 315 316 318 318 318 319 320 321 323 324 326 326 325 325 326 326 326 325 324 323 322 321 320 319 317 317 318 316 313 314 314 312 310 307 304
338 333 311 302 306 309 309 311 311 310 310 311 311 311 310 311 310 309 309 308 307 308 308 309 309 310 311 312 313 315 316 317 318 318 319 320 321 322 323 322 323 324 325 326 325 322 321 319 319 319 317 317 319 318 314 312 314 313 311 308 305 302
336 337 319 305 306 309 310 311 311 311 311 311 311 311 310 309 308 306 305 305 305 305 305 305 307 308 310 311 312 314 316 317 317 317 318 319 319 320 321 321 321 321 322 323 324 322 319 318 318 317 315 315 317 316 315 314 314 311 308 306 304 302
336 339 324 308 306 310 310 310 311 310 310 311 311 310 309 307 306 305 303 303 303 303 303 303 304 306 308 310 311 313 314 315 316 316 317 317 318 318 319 319 319 319 319 320 320 319 318 317 316 314 313 314 314 314 314 314 312 310 307 304 303 300
325 321 314 308 310 312 310 310 311 311 311 311 310 310 308 306 305 304 303 303 302 302 302 303 303 304 305 306 308 310 312 313 314 315 315 316 316 317 317 317 317 317 317 317 316 315 315 314 312 311 312 312 310 308 308 309 310 309 306 303 301 297
315 309 310 312 312 311 310 310 310 310 310 310 309 309 308 305 304 303 303 303 303 302 302 303 304 304 305 305 306 307 309 311 312 313 313 313 314 314 314 315 315 315 315 314 313 312 311 310 310 310 310 308 306 305 306 308 308 306 304 302 300 296
311 306 310 313 312 311 311 310 310 310 310 309 309 308 307 305 304 302 302 303 303 303 303 303 304 305 306 306 306 306 307 309 311 312 312 312 312 312 312 312 312 312 312 312 311 310 309 309 309 308 308 307 307 306 307 307 305 303 302 300 297 294
310 309 311 312 312 311 311 311 311 310 309 309 309 308 307 305 303 302 302 303 303 303 303 303 304 305 306 307 307 307 308 309 310 310 310 310 310 310 310 310 310 310 310 310 309 308 308 308 307 306 306 306 305 304 303 303 302 301 299 296 294 291
312 313 312 311 312 312 311 311 311 310 309 309 308 307 306 303 302 301 301 302 303 303 303 303 304 305 306 307 307 308 308 309 309 309 310 309 309 309 308 308 308 308 307 307 307 307 307 306 306 306 305 304 303 302 301 301 300 298 295 293 291 290
313 313 312 311 312 312 312 311 310 310 309 308 307 306 304 302 301 301 301 302 302 303 303 304 304 305 306 307 307 308 308 308 308 308 308 308 307 307 307 306 305 305 305 305 305 305 306 305 305 305 304 303 302 302 301 301 298 295 293 290 289 288
313 312 311 310 312 312 312 311 310 309 307 306 306 303 301 300 300 300 300 301 302 303 303 304 304 305 306 307 307 307 307 306 305 305 305 305 304 304 304 303 303 303 304 304 304 304 305 304 304 303 303 302 301 301 301 300 297 293 290 289 288 287
312 309 308 310 311 312 311 310 309 308 306 305 303 301 300 300 300 300 300 301 302 303 304 304 304 305 306 306 306 305 304 303 303 303 302 302 302 301 301 301 300 300 300 300 300 301 301 302 302 302 302 301 301 300 299 297 294 292 290 288 287 287
310 309 310 311 311 311 310 309 307 306 304 303 300 300 301 301 300 300 300 300 302 303 303 304 304 305 305 305 304 303 302 302 302 301 301 300 300 299 299 298 298 298 298 298 298 298 298 298 298 299 298 297 296 295 294 293 292 291 289 287 286 286
307 308 309 309 309 309 309 307 306 304 302 301 301 302 302 301 300 299 299 300 301 302 303 304 304 304 304 303 303 303 302 302 301 301 301 300 300 299 298 298 297 297 297 297 297 297 297 297 297 297 295 294 293 292 291 290 290 289 288 287 286 285
304 305 307 307 307 307 307 306 304 302 301 300 302 303 302 301 299 299 299 300 301 302 303 304 304 304 303 303 303 303 303 302 301 300 299 299 299 298 297 297 296 296 296 296 296 296 296 296 297 297 296 294 293 291 289 289 288 288 287 287 287 287
302 303 305 305 305 305 305 305 304 301 300 301 302 302 302 300 298 299 299 300 301 301 302 303 303 303 303 303 302 301 300 299 298 297 297 297 297 296 295 295 294 294 294 293 293 293 293 294 294 294 294 293 291 290 288 288 287 287 286 286 287 287
301 301 302 303 304 304 304 304 303 301 300 301 302 302 301 299 298 298 299 300 300 301 301 301 302 301 301 301 300 299 299 299 297 297 296 296 296 295 294 293 293 293 292 292 291 292 292 292 292 291 291 291 290 289 288 287 286 286 286 286 286 286
300 299 299 300 302 303 303 303 303 302 301 302 302 301 301 299 297 298 299 299 299 299 300 299 299 299 299 298 298 299 299 299 298 297 296 295 295 295 294 293 292 291 291 291 291 291 291 291 291 290 289 289 289 288 287 286 286 285 285 285 285 285
296 296 296 297 299 301 302 302 302 301 302 302 301 301 300 297 297 297 297 298 298 298 298 298 297 296 296 296 296 297 297 298 298 297 296 295 294 293 293 293 292 291 291 291 291 291 291 290 290 289 288 288 288 288 287 286 285 285 284 284 284 284
295 295 294 295 297 299 299 300 300 300 301 301 300 300 299 296 296 296 296 296 297 296 297 297 296 295 295 294 295 295 295 295 296 296 296 296 296 295 294 293 292 292 292 292 291 290 289 289 288 288 288 288 287 287 286 286 285 285 284 284 284 284
294 294 294 294 296 297 297 298 299 299 299 300 299 299 298 296 295 295 295 295 295 295 295 295 295 295 294 293 293 293 294 295 295 296 296 296 296 296 296 295 294 294 294 293 291 290 289 289 289 290 290 289 287 287 286 286 285 285 284 284 284 283
295 293 293 293 294 296 296 297 298 298 299 299 298 298 297 295 294 293 293 294 294 293 294 294 293 293 293 292 291 291 292 292 293 294 294 294 294 294 294 294 294 294 293 292 292 291 291 291 291 291 290 289 288 287 286 286 285 285 284 284 283 283
293 292 292 292 293 295 296 296 297 297 297 298 297 297 297 295 292 291 291 292 292 292 292 292 292 292 292 292 291 291 290 289 289 290 291 292 292 292 292 292 292 292 292 291 290 290 290 289 289 288 288 288 288 287 286 285 285 285 284 284 283 283
292 291 291 291 292 293 294 295 295 296 296 297 296 296 296 295 292 290 289 290 291 291 291 291 291 291 291 291 290 290 290 288 287 286 287 288 289 289 289 289 289 289 289 289 288 288 287 287 287 286 286 286 286 286 286 285 285 285 284 284 283 283
291 291 290 291 291 292 292 293 294 295 295 295 295 296 296 295 294 292 290 289 289 289 290 290 290 290 290 290 289 289 289 288 287 285 285 285 286 287 287 287 287 287 287 286 286 286 286 285 285 285 285 285 285 285 285 285 285 285 284 283 283 282
291 290 290 290 290 291 291 292 293 294 295 295 295 295 295 295 295 294 292 290 290 289 289 289 289 289 289 289 289 288 288 288 288 288 286 285 284 284 285 285 285 285 285 285 285 285 284 284 284 284 284 284 284 284 284 284 284 284 284 283 283 282
289 288 288 289 289 289 289 291 292 293 294 294 294 295 295 295 295 294 293 292 291 291 290 290 290 289 289 289 288 288 288 288 288 288 287 286 285 285 285 285 285 285 285 284 284 284 284 283 283 283 283 283 283 283 283 284 284 284 284 283 283 282
288 287 287 287 288 287 288 289 290 291 292 293 293 294 294 293 293 293 291 291 291 291 291 290 290 290 289 289 288 288 288 288 287 286 286 286 286 286 285 285 284 284 284 283 283 283 283 283 283 282 282 282 282 282 283 283 283 283 283 283 283 283